Wetterdaten: Sonntag, 25.07.2010
Datum Zeit Temp. Innen Temp. Aussen UV X Diff Temp. Feuchte Inne Feuchte Auss Sonnenschein Luftdruck Regen ab 0,1 Wind Sonnenschein Windben
25.07.2010 00:00 24,5 C 14,0 C 0,0 UV-I 0,0 C 46 % 62 % 0 % 1023,7 hPa 0,0 l/m 0,0 km/h (0 Bft) 0 min 0,0 km/h (0 Bft)
25.07.2010 00:02 24,5 C 14,0 C 0,0 UV-I 0,0 C 46 % 62 % 0 % 1023,7 hPa 0,0 l/m 0,0 km/h (0 Bft) 0 min 0,0 km/h (0 Bft)
25.07.2010 00:04 24,5 C 13,9 C 0,0 UV-I 0,0 C 46 % 62 % 0 % 1023,7 hPa 0,0 l/m 0,0 km/h (0 Bft) 0 min 0,0 km/h (0 Bft)
25.07.2010 00:06 24,5 C 13,9 C 0,0 UV-I 0,0 C 46 % 62 % 0 % 1023,7 hPa 0,0 l/m 0,0 km/h (0 Bft) 0 min 0,0 km/h (0 Bft)
25.07.2010 00:08 24,5 C 13,9 C 0,0 UV-I 0,0 C 46 % 63 % 0 % 1023,6 hPa 0,0 l/m 0,0 km/h (0 Bft) 0 min 0,0 km/h (0 Bft)
25.07.2010 00:10 24,4 C 13,7 C 0,0 UV-I 0,0 C 46 % 63 % 0 % 1023,6 hPa 0,0 l/m 0,0 km/h (0 Bft) 0 min 0,0 km/h (0 Bft)
25.07.2010 00:12 24,4 C 13,7 C 0,0 UV-I 0,0 C 46 % 63 % 0 % 1023,6 hPa 0,0 l/m 0,0 km/h (0 Bft) 0 min 0,0 km/h (0 Bft)
25.07.2010 00:14 24,4 C 13,6 C 0,0 UV-I 0,0 C 46 % 63 % 0 % 1023,6 hPa 0,0 l/m 0,0 km/h (0 Bft) 0 min 0,0 km/h (0 Bft)
25.07.2010 00:16 24,4 C 13,7 C 0,0 UV-I 0,0 C 46 % 63 % 0 % 1023,6 hPa 0,0 l/m 0,0 km/h (0 Bft) 0 min 0,0 km/h (0 Bft)
25.07.2010 00:18 24,4 C 13,6 C 0,0 UV-I 0,0 C 46 % 63 % 0 % 1023,6 hPa 0,0 l/m 0,0 km/h (0 Bft) 0 min 0,0 km/h (0 Bft)
25.07.2010 00:20 24,4 C 13,5 C 0,0 UV-I 0,0 C 46 % 63 % 0 % 1023,6 hPa 0,0 l/m 0,0 km/h (0 Bft) 0 min 0,0 km/h (0 Bft)
25.07.2010 00:22 24,4 C 13,5 C 0,0 UV-I 0,0 C 46 % 63 % 0 % 1023,6 hPa 0,0 l/m 0,0 km/h (0 Bft) 0 min 0,0 km/h (0 Bft)
25.07.2010 00:24 24,4 C 13,4 C 0,0 UV-I 0,0 C 46 % 64 % 0 % 1023,6 hPa 0,0 l/m 0,0 km/h (0 Bft) 0 min 0,0 km/h (0 Bft)
25.07.2010 00:26 24,4 C 13,5 C 0,0 UV-I 0,0 C 46 % 64 % 0 % 1023,6 hPa 0,0 l/m 0,0 km/h (0 Bft) 0 min 0,0 km/h (0 Bft)
25.07.2010 00:28 24,4 C 13,5 C 0,0 UV-I 0,0 C 46 % 64 % 0 % 1023,2 hPa 0,0 l/m 0,0 km/h (0 Bft) 0 min 0,0 km/h (0 Bft)
25.07.2010 00:30 24,2 C 13,4 C 0,0 UV-I 0,0 C 46 % 64 % 0 % 1023,2 hPa 0,0 l/m 0,0 km/h (0 Bft) 0 min 0,0 km/h (0 Bft)
25.07.2010 00:32 24,2 C 13,3 C 0,0 UV-I 0,0 C 46 % 64 % 0 % 1023,2 hPa 0,0 l/m 0,0 km/h (0 Bft) 0 min 0,0 km/h (0 Bft)
25.07.2010 00:34 24,3 C 13,3 C 0,0 UV-I 0,0 C 46 % 65 % 0 % 1023,2 hPa 0,0 l/m 0,0 km/h (0 Bft) 0 min 0,0 km/h (0 Bft)
25.07.2010 00:36 24,3 C 13,3 C 0,0 UV-I 0,0 C 46 % 65 % 0 % 1023,2 hPa 0,0 l/m 0,0 km/h (0 Bft) 0 min 0,0 km/h (0 Bft)
25.07.2010 00:38 24,3 C 13,2 C 0,0 UV-I 0,0 C 46 % 65 % 0 % 1023,2 hPa 0,0 l/m 0,0 km/h (0 Bft) 0 min 0,0 km/h (0 Bft)
25.07.2010 00:40 24,2 C 13,2 C 0,0 UV-I 0,0 C 46 % 65 % 0 % 1023,2 hPa 0,0 l/m 0,0 km/h (0 Bft) 0 min 0,0 km/h (0 Bft)
25.07.2010 00:42 24,2 C 13,3 C 0,0 UV-I 0,0 C 46 % 65 % 0 % 1023,2 hPa 0,0 l/m 0,0 km/h (0 Bft) 0 min 0,0 km/h (0 Bft)
25.07.2010 00:44 24,2 C 13,2 C 0,0 UV-I 0,0 C 46 % 66 % 0 % 1023,2 hPa 0,0 l/m 0,0 km/h (0 Bft) 0 min 0,0 km/h (0 Bft)
25.07.2010 00:46 24,2 C 13,2 C 0,0 UV-I 0,0 C 46 % 66 % 0 % 1023,2 hPa 0,0 l/m 0,0 km/h (0 Bft) 0 min 0,0 km/h (0 Bft)
25.07.2010 00:50 24,2 C 13,1 C 0,0 UV-I 0,0 C 46 % 66 % 0 % 1023,1 hPa 0,0 l/m 0,0 km/h (0 Bft) 0 min 0,0 km/h (0 Bft)
25.07.2010 00:52 24,2 C 13,0 C 0,0 UV-I 0,0 C 46 % 66 % 0 % 1023,1 hPa 0,0 l/m 0,0 km/h (0 Bft) 0 min 0,0 km/h (0 Bft)
25.07.2010 00:54 24,2 C 13,1 C 0,0 UV-I 0,0 C 46 % 66 % 0 % 1023,1 hPa 0,0 l/m 0,0 km/h (0 Bft) 0 min 0,0 km/h (0 Bft)
25.07.2010 00:56 24,2 C 12,9 C 0,0 UV-I 0,0 C 46 % 67 % 0 % 1023,1 hPa 0,0 l/m 0,0 km/h (0 Bft) 0 min 0,0 km/h (0 Bft)
25.07.2010 00:58 24,2 C 12,9 C 0,0 UV-I 0,0 C 46 % 67 % 0 % 1023,1 hPa 0,0 l/m 0,0 km/h (0 Bft) 0 min 0,0 km/h (0 Bft)
25.07.2010 01:00 24,2 C 12,9 C 0,0 UV-I 0,0 C 46 % 67 % 0 % 1023,1 hPa 0,0 l/m 0,0 km/h (0 Bft) 0 min 0,0 km/h (0 Bft)
25.07.2010 01:04 24,2 C 12,8 C 0,0 UV-I 0,0 C 46 % 68 % 0 % 1023,1 hPa 0,0 l/m 0,0 km/h (0 Bft) 0 min 0,0 km/h (0 Bft)
25.07.2010 01:06 24,1 C 12,8 C 0,0 UV-I 0,0 C 46 % 68 % 0 % 1023,1 hPa 0,0 l/m 0,0 km/h (0 Bft) 0 min 0,0 km/h (0 Bft)
25.07.2010 01:08 24,1 C 12,8 C 0,0 UV-I 0,0 C 46 % 68 % 0 % 1022,8 hPa 0,0 l/m 0,0 km/h (0 Bft) 0 min 0,0 km/h (0 Bft)
25.07.2010 01:10 24,1 C 12,8 C 0,0 UV-I 0,0 C 47 % 68 % 0 % 1022,8 hPa 0,0 l/m 0,0 km/h (0 Bft) 0 min 0,0 km/h (0 Bft)
25.07.2010 01:12 24,1 C 12,8 C 0,0 UV-I 0,0 C 47 % 69 % 0 % 1022,8 hPa 0,0 l/m 0,0 km/h (0 Bft) 0 min 0,0 km/h (0 Bft)
25.07.2010 01:14 24,1 C 12,8 C 0,0 UV-I 0,0 C 46 % 69 % 0 % 1022,8 hPa 0,0 l/m 0,0 km/h (0 Bft) 0 min 0,0 km/h (0 Bft)
25.07.2010 01:16 24,1 C 12,7 C 0,0 UV-I 0,0 C 47 % 69 % 0 % 1022,8 hPa 0,0 l/m 0,0 km/h (0 Bft) 0 min 0,0 km/h (0 Bft)
25.07.2010 01:18 24,1 C 12,7 C 0,0 UV-I 0,0 C 46 % 69 % 0 % 1022,8 hPa 0,0 l/m 0,0 km/h (0 Bft) 0 min 0,0 km/h (0 Bft)
25.07.2010 01:22 24,1 C 12,7 C 0,0 UV-I 0,0 C 47 % 70 % 0 % 1022,8 hPa 0,0 l/m 0,0 km/h (0 Bft) 0 min 0,0 km/h (0 Bft)
25.07.2010 01:24 24,0 C 12,7 C 0,0 UV-I 0,0 C 47 % 70 % 0 % 1022,8 hPa 0,0 l/m 0,0 km/h (0 Bft) 0 min 0,0 km/h (0 Bft)
25.07.2010 01:26 24,0 C 12,5 C 0,0 UV-I 0,0 C 47 % 71 % 0 % 1022,8 hPa 0,0 l/m 0,0 km/h (0 Bft) 0 min 0,0 km/h (0 Bft)
25.07.2010 01:28 24,0 C 12,5 C 0,0 UV-I 0,0 C 47 % 71 % 0 % 1022,8 hPa 0,0 l/m 0,0 km/h (0 Bft) 0 min 0,0 km/h (0 Bft)
25.07.2010 01:30 24,0 C 12,5 C 0,0 UV-I 0,0 C 47 % 71 % 0 % 1022,8 hPa 0,0 l/m 0,0 km/h (0 Bft) 0 min 0,0 km/h (0 Bft)
25.07.2010 01:32 24,0 C 12,5 C 0,0 UV-I 0,0 C 47 % 71 % 0 % 1022,8 hPa 0,0 l/m 0,0 km/h (0 Bft) 0 min 0,0 km/h (0 Bft)
25.07.2010 01:34 24,0 C 12,4 C 0,0 UV-I 0,0 C 47 % 72 % 0 % 1022,8 hPa 0,0 l/m 0,0 km/h (0 Bft) 0 min 0,0 km/h (0 Bft)
25.07.2010 01:36 24,0 C 12,4 C 0,0 UV-I 0,0 C 47 % 72 % 0 % 1022,8 hPa 0,0 l/m 0,0 km/h (0 Bft) 0 min 0,0 km/h (0 Bft)
25.07.2010 01:37 24,0 C 12,4 C 0,0 UV-I 0,0 C 47 % 72 % 0 % 1022,8 hPa 0,0 l/m 0,0 km/h (0 Bft) 0 min 0,0 km/h (0 Bft)
25.07.2010 01:42 24,0 C 12,4 C 0,0 UV-I 0,0 C 47 % 72 % 0 % 1022,8 hPa 0,0 l/m 0,0 km/h (0 Bft) 0 min 0,0 km/h (0 Bft)
25.07.2010 01:47 23,8 C 12,3 C 0,0 UV-I 0,0 C 46 % 74 % 0 % 1022,6 hPa 0,0 l/m 0,0 km/h (0 Bft) 0 min 0,0 km/h (0 Bft)
25.07.2010 01:52 23,8 C 12,3 C 0,0 UV-I 0,0 C 47 % 73 % 0 % 1022,6 hPa 0,0 l/m 0,0 km/h (0 Bft) 0 min 0,0 km/h (0 Bft)
25.07.2010 01:57 23,7 C 12,1 C 0,0 UV-I 0,0 C 47 % 73 % 0 % 1022,6 hPa 0,0 l/m 0,0 km/h (0 Bft) 0 min 0,0 km/h (0 Bft)
25.07.2010 02:02 23,7 C 12,0 C 0,0 UV-I 0,0 C 47 % 73 % 0 % 1022,6 hPa 0,0 l/m 0,0 km/h (0 Bft) 0 min 0,0 km/h (0 Bft)
25.07.2010 02:07 23,6 C 12,0 C 0,0 UV-I 0,0 C 47 % 73 % 0 % 1022,7 hPa 0,0 l/m 0,0 km/h (0 Bft) 0 min 0,0 km/h (0 Bft)
25.07.2010 02:12 23,5 C 11,9 C 0,0 UV-I 0,0 C 47 % 73 % 0 % 1022,7 hPa 0,0 l/m 0,0 km/h (0 Bft) 0 min 0,0 km/h (0 Bft)
25.07.2010 02:17 23,5 C 11,9 C 0,0 UV-I 0,0 C 47 % 73 % 0 % 1022,7 hPa 0,0 l/m 0,0 km/h (0 Bft) 0 min 0,0 km/h (0 Bft)
25.07.2010 02:18 23,5 C 11,8 C 0,0 UV-I 0,0 C 47 % 73 % 0 % 1022,7 hPa 0,0 l/m 0,0 km/h (0 Bft) 0 min 0,0 km/h (0 Bft)
25.07.2010 02:20 23,5 C 11,9 C 0,0 UV-I 0,0 C 47 % 73 % 0 % 1022,7 hPa 0,0 l/m 0,0 km/h (0 Bft) 0 min 0,0 km/h (0 Bft)
25.07.2010 02:22 23,4 C 11,8 C 0,0 UV-I 0,0 C 47 % 74 % 0 % 1022,7 hPa 0,0 l/m 0,0 km/h (0 Bft) 0 min 0,0 km/h (0 Bft)
25.07.2010 02:24 23,4 C 11,9 C 0,0 UV-I 0,0 C 47 % 74 % 0 % 1022,7 hPa 0,0 l/m 0,0 km/h (0 Bft) 0 min 0,0 km/h (0 Bft)
25.07.2010 02:26 23,4 C 11,9 C 0,0 UV-I 0,0 C 47 % 74 % 0 % 1022,7 hPa 0,0 l/m 0,0 km/h (0 Bft) 0 min 0,0 km/h (0 Bft)
25.07.2010 02:28 23,4 C 11,9 C 0,0 UV-I 0,0 C 47 % 74 % 0 % 1022,4 hPa 0,0 l/m 0,0 km/h (0 Bft) 0 min 0,0 km/h (0 Bft)
25.07.2010 02:30 23,4 C 11,8 C 0,0 UV-I 0,0 C 47 % 74 % 0 % 1022,4 hPa 0,0 l/m 0,0 km/h (0 Bft) 0 min 0,0 km/h (0 Bft)
25.07.2010 02:32 23,4 C 11,8 C 0,0 UV-I 0,0 C 47 % 74 % 0 % 1022,4 hPa 0,0 l/m 0,0 km/h (0 Bft) 0 min 0,0 km/h (0 Bft)
25.07.2010 02:34 23,4 C 11,7 C 0,0 UV-I 0,0 C 47 % 74 % 0 % 1022,4 hPa 0,0 l/m 0,0 km/h (0 Bft) 0 min 0,0 km/h (0 Bft)
25.07.2010 02:36 23,4 C 11,7 C 0,0 UV-I 0,0 C 47 % 74 % 0 % 1022,4 hPa 0,0 l/m 0,0 km/h (0 Bft) 0 min 0,0 km/h (0 Bft)
25.07.2010 02:38 23,4 C 11,7 C 0,0 UV-I 0,0 C 47 % 74 % 0 % 1022,4 hPa 0,0 l/m 0,0 km/h (0 Bft) 0 min 0,0 km/h (0 Bft)
25.07.2010 02:40 23,4 C 11,6 C 0,0 UV-I 0,0 C 48 % 74 % 0 % 1022,4 hPa 0,0 l/m 0,0 km/h (0 Bft) 0 min 0,0 km/h (0 Bft)
25.07.2010 02:42 23,4 C 11,6 C 0,0 UV-I 0,0 C 48 % 75 % 0 % 1022,4 hPa 0,0 l/m 0,0 km/h (0 Bft) 0 min 0,0 km/h (0 Bft)
25.07.2010 02:44 23,4 C 11,6 C 0,0 UV-I 0,0 C 47 % 75 % 0 % 1022,4 hPa 0,0 l/m 0,0 km/h (0 Bft) 0 min 0,0 km/h (0 Bft)
25.07.2010 02:46 23,4 C 11,7 C 0,0 UV-I 0,0 C 48 % 75 % 0 % 1022,4 hPa 0,0 l/m 0,0 km/h (0 Bft) 0 min 0,0 km/h (0 Bft)
25.07.2010 02:48 23,4 C 11,6 C 0,0 UV-I 0,0 C 48 % 75 % 0 % 1022,2 hPa 0,0 l/m 0,0 km/h (0 Bft) 0 min 0,0 km/h (0 Bft)
25.07.2010 02:50 23,4 C 11,5 C 0,0 UV-I 0,0 C 48 % 75 % 0 % 1022,2 hPa 0,0 l/m 0,0 km/h (0 Bft) 0 min 0,0 km/h (0 Bft)
25.07.2010 02:52 23,4 C 11,5 C 0,0 UV-I 0,0 C 48 % 76 % 0 % 1022,2 hPa 0,0 l/m 0,0 km/h (0 Bft) 0 min 0,0 km/h (0 Bft)
25.07.2010 02:54 23,4 C 11,5 C 0,0 UV-I 0,0 C 48 % 76 % 0 % 1022,2 hPa 0,0 l/m 0,0 km/h (0 Bft) 0 min 0,0 km/h (0 Bft)
25.07.2010 02:56 23,4 C 11,4 C 0,0 UV-I 0,0 C 48 % 76 % 0 % 1022,2 hPa 0,0 l/m 0,0 km/h (0 Bft) 0 min 0,0 km/h (0 Bft)
25.07.2010 02:58 23,4 C 11,5 C 0,0 UV-I 0,0 C 48 % 76 % 0 % 1022,2 hPa 0,0 l/m 0,0 km/h (0 Bft) 0 min 0,0 km/h (0 Bft)
25.07.2010 03:00 23,4 C 11,5 C 0,0 UV-I 0,0 C 48 % 76 % 0 % 1022,2 hPa 0,0 l/m 0,0 km/h (0 Bft) 0 min 0,0 km/h (0 Bft)
25.07.2010 03:02 23,2 C 11,5 C 0,0 UV-I 0,0 C 48 % 76 % 0 % 1022,2 hPa 0,0 l/m 0,0 km/h (0 Bft) 0 min 0,0 km/h (0 Bft)
25.07.2010 03:04 23,4 C 11,4 C 0,0 UV-I 0,0 C 48 % 76 % 0 % 1022,2 hPa 0,0 l/m 0,0 km/h (0 Bft) 0 min 0,0 km/h (0 Bft)
25.07.2010 03:06 23,4 C 11,4 C 0,0 UV-I 0,0 C 48 % 76 % 0 % 1022,2 hPa 0,0 l/m 0,0 km/h (0 Bft) 0 min 0,0 km/h (0 Bft)
25.07.2010 03:08 23,4 C 11,3 C 0,0 UV-I 0,0 C 48 % 76 % 0 % 1022,2 hPa 0,0 l/m 0,0 km/h (0 Bft) 0 min 0,0 km/h (0 Bft)
25.07.2010 03:10 23,2 C 11,3 C 0,0 UV-I 0,0 C 48 % 76 % 0 % 1022,2 hPa 0,0 l/m 0,0 km/h (0 Bft) 0 min 0,0 km/h (0 Bft)
25.07.2010 03:12 23,2 C 11,3 C 0,0 UV-I 0,0 C 48 % 77 % 0 % 1022,2 hPa 0,0 l/m 0,0 km/h (0 Bft) 0 min 0,0 km/h (0 Bft)
25.07.2010 03:16 23,2 C 11,2 C 0,0 UV-I 0,0 C 48 % 77 % 0 % 1022,2 hPa 0,0 l/m 0,0 km/h (0 Bft) 0 min 0,0 km/h (0 Bft)
25.07.2010 03:18 23,2 C 11,2 C 0,0 UV-I 0,0 C 48 % 77 % 0 % 1022,2 hPa 0,0 l/m 0,0 km/h (0 Bft) 0 min 0,0 km/h (0 Bft)
25.07.2010 03:20 23,2 C 11,2 C 0,0 UV-I 0,0 C 48 % 77 % 0 % 1022,2 hPa 0,0 l/m 0,0 km/h (0 Bft) 0 min 0,0 km/h (0 Bft)
25.07.2010 03:22 23,2 C 11,3 C 0,0 UV-I 0,0 C 48 % 77 % 0 % 1022,2 hPa 0,0 l/m 0,0 km/h (0 Bft) 0 min 0,0 km/h (0 Bft)
25.07.2010 03:24 23,2 C 11,2 C 0,0 UV-I 0,0 C 48 % 77 % 0 % 1022,2 hPa 0,0 l/m 0,0 km/h (0 Bft) 0 min 0,0 km/h (0 Bft)
25.07.2010 03:26 23,2 C 11,2 C 0,0 UV-I 0,0 C 48 % 77 % 0 % 1022,2 hPa 0,0 l/m 0,0 km/h (0 Bft) 0 min 0,0 km/h (0 Bft)
25.07.2010 03:28 23,2 C 11,1 C 0,0 UV-I 0,0 C 48 % 78 % 0 % 1021,9 hPa 0,0 l/m 0,0 km/h (0 Bft) 0 min 0,0 km/h (0 Bft)
25.07.2010 03:30 23,2 C 11,1 C 0,0 UV-I 0,0 C 48 % 78 % 0 % 1021,9 hPa 0,0 l/m 0,0 km/h (0 Bft) 0 min 0,0 km/h (0 Bft)
25.07.2010 03:32 23,2 C 11,1 C 0,0 UV-I 0,0 C 48 % 78 % 0 % 1021,9 hPa 0,0 l/m 0,0 km/h (0 Bft) 0 min 0,0 km/h (0 Bft)
25.07.2010 03:34 23,2 C 11,0 C 0,0 UV-I 0,0 C 48 % 78 % 0 % 1021,9 hPa 0,0 l/m 0,0 km/h (0 Bft) 0 min 0,0 km/h (0 Bft)
25.07.2010 03:36 23,3 C 11,0 C 0,0 UV-I 0,0 C 48 % 78 % 0 % 1021,9 hPa 0,0 l/m 0,0 km/h (0 Bft) 0 min 0,0 km/h (0 Bft)
25.07.2010 03:38 23,2 C 11,1 C 0,0 UV-I 0,0 C 48 % 78 % 0 % 1021,9 hPa 0,0 l/m 0,0 km/h (0 Bft) 0 min 0,0 km/h (0 Bft)
25.07.2010 03:40 23,2 C 11,1 C 0,0 UV-I 0,0 C 48 % 78 % 0 % 1021,9 hPa 0,0 l/m 0,0 km/h (0 Bft) 0 min 0,0 km/h (0 Bft)
25.07.2010 03:42 23,3 C 11,0 C 0,0 UV-I 0,0 C 48 % 78 % 0 % 1021,9 hPa 0,0 l/m 0,0 km/h (0 Bft) 0 min 0,0 km/h (0 Bft)
25.07.2010 03:44 23,3 C 10,9 C 0,0 UV-I 0,0 C 48 % 78 % 0 % 1021,9 hPa 0,0 l/m 0,0 km/h (0 Bft) 0 min 0,0 km/h (0 Bft)
25.07.2010 03:46 23,3 C 10,9 C 0,0 UV-I 0,0 C 48 % 78 % 0 % 1021,9 hPa 0,0 l/m 0,0 km/h (0 Bft) 0 min 0,0 km/h (0 Bft)
25.07.2010 03:48 23,3 C 10,9 C 0,0 UV-I 0,0 C 48 % 78 % 0 % 1021,7 hPa 0,0 l/m 0,0 km/h (0 Bft) 0 min 0,0 km/h (0 Bft)
25.07.2010 03:50 23,3 C 10,9 C 0,0 UV-I 0,0 C 48 % 78 % 0 % 1021,7 hPa 0,0 l/m 0,0 km/h (0 Bft) 0 min 0,0 km/h (0 Bft)
25.07.2010 03:52 23,3 C 10,8 C 0,0 UV-I 0,0 C 48 % 78 % 0 % 1021,7 hPa 0,0 l/m 0,0 km/h (0 Bft) 0 min 0,0 km/h (0 Bft)
25.07.2010 03:54 23,2 C 10,8 C 0,0 UV-I 0,0 C 48 % 79 % 0 % 1021,7 hPa 0,0 l/m 0,0 km/h (0 Bft) 0 min 0,0 km/h (0 Bft)
25.07.2010 03:56 23,2 C 10,9 C 0,0 UV-I 0,0 C 48 % 79 % 0 % 1021,7 hPa 0,0 l/m 0,0 km/h (0 Bft) 0 min 0,0 km/h (0 Bft)
25.07.2010 03:58 23,3 C 10,9 C 0,0 UV-I 0,0 C 48 % 79 % 0 % 1021,7 hPa 0,0 l/m 0,0 km/h (0 Bft) 0 min 0,0 km/h (0 Bft)
25.07.2010 04:00 23,3 C 10,8 C 0,0 UV-I 0,0 C 48 % 79 % 0 % 1021,7 hPa 0,0 l/m 0,0 km/h (0 Bft) 0 min 0,0 km/h (0 Bft)
25.07.2010 04:02 23,2 C 10,8 C 0,0 UV-I 0,0 C 48 % 79 % 0 % 1021,7 hPa 0,0 l/m 0,0 km/h (0 Bft) 0 min 0,0 km/h (0 Bft)
25.07.2010 04:04 23,2 C 10,8 C 0,0 UV-I 0,0 C 48 % 79 % 0 % 1021,7 hPa 0,0 l/m 0,0 km/h (0 Bft) 0 min 0,0 km/h (0 Bft)
25.07.2010 04:06 23,2 C 10,8 C 0,0 UV-I 0,0 C 48 % 80 % 0 % 1021,7 hPa 0,0 l/m 0,0 km/h (0 Bft) 0 min 0,0 km/h (0 Bft)
25.07.2010 04:08 23,2 C 10,8 C 0,0 UV-I 0,0 C 48 % 81 % 0 % 1021,4 hPa 0,0 l/m 0,0 km/h (0 Bft) 0 min 0,0 km/h (0 Bft)
25.07.2010 04:10 23,2 C 10,8 C 0,0 UV-I 0,0 C 48 % 81 % 0 % 1021,4 hPa 0,0 l/m 0,0 km/h (0 Bft) 0 min 0,0 km/h (0 Bft)
25.07.2010 04:12 23,2 C 10,8 C 0,0 UV-I 0,0 C 48 % 81 % 0 % 1021,4 hPa 0,0 l/m 0,0 km/h (0 Bft) 0 min 0,0 km/h (0 Bft)
25.07.2010 04:14 23,2 C 10,8 C 0,0 UV-I 0,0 C 48 % 81 % 0 % 1021,4 hPa 0,0 l/m 0,0 km/h (0 Bft) 0 min 0,0 km/h (0 Bft)
25.07.2010 04:16 23,2 C 10,7 C 0,0 UV-I 0,0 C 48 % 81 % 0 % 1021,4 hPa 0,0 l/m 0,0 km/h (0 Bft) 0 min 0,0 km/h (0 Bft)
25.07.2010 04:18 23,2 C 10,7 C 0,0 UV-I 0,0 C 48 % 81 % 0 % 1021,4 hPa 0,0 l/m 0,0 km/h (0 Bft) 0 min 0,0 km/h (0 Bft)
25.07.2010 04:22 23,2 C 10,7 C 0,0 UV-I 0,0 C 48 % 81 % 0 % 1021,4 hPa 0,0 l/m 0,0 km/h (0 Bft) 0 min 0,0 km/h (0 Bft)
25.07.2010 04:24 23,2 C 10,6 C 0,0 UV-I 0,0 C 48 % 81 % 0 % 1021,4 hPa 0,0 l/m 0,0 km/h (0 Bft) 0 min 0,0 km/h (0 Bft)
25.07.2010 04:26 23,2 C 10,7 C 0,0 UV-I 0,0 C 48 % 81 % 0 % 1021,4 hPa 0,0 l/m 0,0 km/h (0 Bft) 0 min 0,0 km/h (0 Bft)
25.07.2010 04:28 23,2 C 10,6 C 0,0 UV-I 0,0 C 48 % 81 % 0 % 1021,3 hPa 0,0 l/m 0,0 km/h (0 Bft) 0 min 0,0 km/h (0 Bft)
25.07.2010 04:30 23,2 C 10,7 C 0,0 UV-I 0,0 C 48 % 81 % 0 % 1021,3 hPa 0,0 l/m 0,0 km/h (0 Bft) 0 min 0,0 km/h (0 Bft)
25.07.2010 04:32 23,2 C 10,7 C 0,0 UV-I 0,0 C 48 % 81 % 0 % 1021,3 hPa 0,0 l/m 0,0 km/h (0 Bft) 0 min 0,0 km/h (0 Bft)
25.07.2010 04:34 23,2 C 10,7 C 0,0 UV-I 0,0 C 48 % 81 % 0 % 1021,3 hPa 0,0 l/m 0,0 km/h (0 Bft) 0 min 0,0 km/h (0 Bft)
25.07.2010 04:36 23,2 C 10,7 C 0,0 UV-I 0,0 C 48 % 81 % 0 % 1021,3 hPa 0,0 l/m 0,0 km/h (0 Bft) 0 min 0,0 km/h (0 Bft)
25.07.2010 04:38 23,2 C 10,6 C 0,0 UV-I 0,0 C 48 % 81 % 0 % 1021,3 hPa 0,0 l/m 0,0 km/h (0 Bft) 0 min 0,0 km/h (0 Bft)
25.07.2010 04:40 23,2 C 10,7 C 0,0 UV-I 0,0 C 48 % 81 % 0 % 1021,3 hPa 0,0 l/m 0,0 km/h (0 Bft) 0 min 0,0 km/h (0 Bft)
25.07.2010 04:42 23,2 C 10,6 C 0,0 UV-I 0,0 C 48 % 81 % 0 % 1021,3 hPa 0,0 l/m 0,0 km/h (0 Bft) 0 min 0,0 km/h (0 Bft)
25.07.2010 04:44 23,1 C 10,7 C 0,0 UV-I 0,0 C 48 % 81 % 0 % 1021,3 hPa 0,0 l/m 0,0 km/h (0 Bft) 0 min 0,0 km/h (0 Bft)
25.07.2010 04:46 23,2 C 10,7 C 0,0 UV-I 0,0 C 48 % 81 % 0 % 1021,3 hPa 0,0 l/m 0,0 km/h (0 Bft) 0 min 0,0 km/h (0 Bft)
25.07.2010 04:48 23,2 C 10,7 C 0,0 UV-I 0,0 C 48 % 81 % 0 % 1021,4 hPa 0,0 l/m 0,0 km/h (0 Bft) 0 min 0,0 km/h (0 Bft)
25.07.2010 04:50 23,1 C 10,7 C 0,0 UV-I 0,0 C 48 % 82 % 0 % 1021,4 hPa 0,0 l/m 0,0 km/h (0 Bft) 0 min 0,0 km/h (0 Bft)
25.07.2010 04:52 23,2 C 10,7 C 0,0 UV-I 0,0 C 48 % 82 % 0 % 1021,4 hPa 0,0 l/m 0,0 km/h (0 Bft) 0 min 0,0 km/h (0 Bft)
25.07.2010 04:54 23,1 C 10,8 C 0,0 UV-I 0,0 C 48 % 82 % 0 % 1021,4 hPa 0,0 l/m 0,0 km/h (0 Bft) 0 min 0,0 km/h (0 Bft)
25.07.2010 04:56 23,1 C 10,8 C 0,0 UV-I 0,0 C 48 % 82 % 0 % 1021,4 hPa 0,0 l/m 0,0 km/h (0 Bft) 0 min 0,0 km/h (0 Bft)
25.07.2010 04:58 23,1 C 10,8 C 0,0 UV-I 0,0 C 48 % 82 % 0 % 1021,4 hPa 0,0 l/m 0,0 km/h (0 Bft) 0 min 0,0 km/h (0 Bft)
25.07.2010 05:00 23,1 C 10,8 C 0,0 UV-I 0,0 C 48 % 82 % 0 % 1021,4 hPa 0,0 l/m 0,0 km/h (0 Bft) 0 min 0,0 km/h (0 Bft)
25.07.2010 05:02 23,1 C 10,8 C 0,0 UV-I 0,0 C 48 % 82 % 0 % 1021,4 hPa 0,0 l/m 0,0 km/h (0 Bft) 0 min 0,0 km/h (0 Bft)
25.07.2010 05:04 23,1 C 10,9 C 0,0 UV-I 0,0 C 48 % 82 % 0 % 1021,4 hPa 0,0 l/m 0,0 km/h (0 Bft) 0 min 0,0 km/h (0 Bft)
25.07.2010 05:06 23,1 C 10,9 C 0,0 UV-I 0,0 C 48 % 83 % 0 % 1021,4 hPa 0,0 l/m 0,0 km/h (0 Bft) 0 min 0,0 km/h (0 Bft)
25.07.2010 05:08 23,1 C 10,9 C 0,0 UV-I 0,0 C 48 % 83 % 0 % 1021,1 hPa 0,0 l/m 0,0 km/h (0 Bft) 0 min 0,0 km/h (0 Bft)
25.07.2010 05:10 23,1 C 11,0 C 0,0 UV-I 0,0 C 48 % 83 % 0 % 1021,1 hPa 0,0 l/m 0,0 km/h (0 Bft) 0 min 0,0 km/h (0 Bft)
25.07.2010 05:12 23,1 C 11,1 C 0,0 UV-I 0,0 C 49 % 83 % 0 % 1021,1 hPa 0,0 l/m 0,0 km/h (0 Bft) 0 min 0,0 km/h (0 Bft)
25.07.2010 05:14 23,1 C 11,1 C 0,0 UV-I 0,0 C 49 % 83 % 0 % 1021,1 hPa 0,0 l/m 0,0 km/h (0 Bft) 0 min 0,0 km/h (0 Bft)
25.07.2010 05:16 23,1 C 11,1 C 0,0 UV-I 0,0 C 49 % 83 % 0 % 1021,1 hPa 0,0 l/m 0,0 km/h (0 Bft) 0 min 0,0 km/h (0 Bft)
25.07.2010 05:18 23,1 C 11,1 C 0,0 UV-I 0,0 C 49 % 83 % 0 % 1021,1 hPa 0,0 l/m 0,0 km/h (0 Bft) 0 min 0,0 km/h (0 Bft)
25.07.2010 05:20 23,1 C 11,1 C 0,0 UV-I 0,0 C 49 % 83 % 0 % 1021,1 hPa 0,0 l/m 0,0 km/h (0 Bft) 0 min 0,0 km/h (0 Bft)
25.07.2010 05:22 23,1 C 11,1 C 0,0 UV-I 0,0 C 49 % 83 % 0 % 1021,1 hPa 0,0 l/m 0,0 km/h (0 Bft) 0 min 0,0 km/h (0 Bft)
25.07.2010 05:24 23,1 C 11,1 C 0,0 UV-I 0,0 C 49 % 83 % 0 % 1021,1 hPa 0,0 l/m 0,0 km/h (0 Bft) 0 min 0,0 km/h (0 Bft)
25.07.2010 05:26 23,1 C 11,2 C 0,0 UV-I 0,0 C 49 % 83 % 0 % 1021,1 hPa 0,0 l/m 0,0 km/h (0 Bft) 0 min 0,0 km/h (0 Bft)
25.07.2010 05:28 23,1 C 11,3 C 0,0 UV-I 0,0 C 49 % 84 % 0 % 1021,2 hPa 0,0 l/m 0,0 km/h (0 Bft) 0 min 0,0 km/h (0 Bft)
25.07.2010 05:30 23,1 C 11,3 C 0,0 UV-I 0,0 C 49 % 84 % 0 % 1021,2 hPa 0,0 l/m 0,0 km/h (0 Bft) 0 min 0,0 km/h (0 Bft)
25.07.2010 05:32 23,1 C 11,4 C 0,0 UV-I 0,0 C 49 % 84 % 0 % 1021,2 hPa 0,0 l/m 0,0 km/h (0 Bft) 0 min 0,0 km/h (0 Bft)
25.07.2010 05:34 23,1 C 11,4 C 0,0 UV-I 0,0 C 49 % 84 % 0 % 1021,2 hPa 0,0 l/m 0,0 km/h (0 Bft) 0 min 0,0 km/h (0 Bft)
25.07.2010 05:36 23,1 C 11,5 C 0,0 UV-I 0,0 C 49 % 84 % 0 % 1021,2 hPa 0,0 l/m 0,0 km/h (0 Bft) 0 min 0,0 km/h (0 Bft)
25.07.2010 05:38 23,1 C 11,5 C 0,0 UV-I 0,0 C 49 % 84 % 0 % 1021,2 hPa 0,0 l/m 0,0 km/h (0 Bft) 0 min 0,0 km/h (0 Bft)
25.07.2010 05:40 23,1 C 11,5 C 0,0 UV-I 0,0 C 49 % 84 % 0 % 1021,2 hPa 0,0 l/m 0,0 km/h (0 Bft) 0 min 0,0 km/h (0 Bft)
25.07.2010 05:42 23,1 C 11,6 C 0,0 UV-I 0,0 C 49 % 84 % 0 % 1021,2 hPa 0,0 l/m 0,0 km/h (0 Bft) 0 min 0,0 km/h (0 Bft)
25.07.2010 05:44 23,1 C 11,7 C 0,0 UV-I 0,0 C 49 % 84 % 0 % 1021,2 hPa 0,0 l/m 0,0 km/h (0 Bft) 0 min 0,0 km/h (0 Bft)
25.07.2010 05:46 23,1 C 11,6 C 0,0 UV-I 0,0 C 49 % 84 % 0 % 1021,2 hPa 0,0 l/m 0,0 km/h (0 Bft) 0 min 0,0 km/h (0 Bft)
25.07.2010 05:48 23,1 C 11,7 C 0,0 UV-I 0,0 C 49 % 84 % 0 % 1021,1 hPa 0,0 l/m 0,0 km/h (0 Bft) 0 min 0,0 km/h (0 Bft)
25.07.2010 05:50 23,1 C 11,6 C 0,0 UV-I 0,0 C 49 % 83 % 0 % 1021,1 hPa 0,0 l/m 0,0 km/h (0 Bft) 0 min 0,0 km/h (0 Bft)
25.07.2010 05:52 23,1 C 11,7 C 0,0 UV-I 0,0 C 49 % 83 % 0 % 1021,1 hPa 0,0 l/m 0,0 km/h (0 Bft) 0 min 0,0 km/h (0 Bft)
25.07.2010 05:54 23,1 C 11,7 C 0,0 UV-I 0,0 C 49 % 83 % 0 % 1021,1 hPa 0,0 l/m 0,0 km/h (0 Bft) 0 min 0,0 km/h (0 Bft)
25.07.2010 05:56 23,1 C 11,9 C 0,0 UV-I 0,0 C 49 % 83 % 0 % 1021,1 hPa 0,0 l/m 0,0 km/h (0 Bft) 0 min 0,0 km/h (0 Bft)
25.07.2010 05:58 23,1 C 11,8 C 0,0 UV-I 0,0 C 49 % 82 % 0 % 1021,1 hPa 0,0 l/m 0,0 km/h (0 Bft) 0 min 0,0 km/h (0 Bft)
25.07.2010 06:00 23,1 C 11,9 C 0,0 UV-I 0,0 C 49 % 82 % 0 % 1021,1 hPa 0,0 l/m 0,0 km/h (0 Bft) 0 min 0,0 km/h (0 Bft)
25.07.2010 06:02 23,1 C 11,8 C 0,0 UV-I 0,0 C 49 % 82 % 0 % 1021,1 hPa 0,0 l/m 0,0 km/h (0 Bft) 0 min 0,0 km/h (0 Bft)
25.07.2010 06:04 23,1 C 11,9 C 0,0 UV-I 0,0 C 49 % 82 % 0 % 1021,1 hPa 0,0 l/m 0,0 km/h (0 Bft) 0 min 0,0 km/h (0 Bft)
25.07.2010 06:06 23,1 C 11,9 C 0,0 UV-I 0,0 C 49 % 82 % 0 % 1021,1 hPa 0,0 l/m 0,0 km/h (0 Bft) 0 min 0,0 km/h (0 Bft)
25.07.2010 06:08 23,1 C 11,9 C 0,0 UV-I 0,0 C 49 % 82 % 0 % 1021,2 hPa 0,0 l/m 0,0 km/h (0 Bft) 0 min 0,0 km/h (0 Bft)
25.07.2010 06:10 23,1 C 11,9 C 0,0 UV-I 0,0 C 49 % 82 % 0 % 1021,2 hPa 0,0 l/m 0,0 km/h (0 Bft) 0 min 0,0 km/h (0 Bft)
25.07.2010 06:12 23,0 C 12,1 C 0,0 UV-I 0,0 C 49 % 81 % 0 % 1021,2 hPa 0,0 l/m 0,0 km/h (0 Bft) 0 min 0,0 km/h (0 Bft)
25.07.2010 06:14 23,1 C 12,1 C 0,0 UV-I 0,0 C 49 % 81 % 0 % 1021,2 hPa 0,0 l/m 0,0 km/h (0 Bft) 0 min 0,0 km/h (0 Bft)
25.07.2010 06:16 23,1 C 12,0 C 0,0 UV-I 0,0 C 49 % 81 % 0 % 1021,2 hPa 0,0 l/m 0,0 km/h (0 Bft) 0 min 0,0 km/h (0 Bft)
25.07.2010 06:18 23,1 C 12,0 C 0,0 UV-I 0,0 C 49 % 81 % 0 % 1021,2 hPa 0,0 l/m 0,0 km/h (0 Bft) 0 min 0,0 km/h (0 Bft)
25.07.2010 06:20 23,1 C 12,1 C 0,0 UV-I 0,0 C 49 % 81 % 0 % 1021,2 hPa 0,0 l/m 0,0 km/h (0 Bft) 0 min 0,0 km/h (0 Bft)
25.07.2010 06:22 23,0 C 12,1 C 0,0 UV-I 0,0 C 49 % 81 % 0 % 1021,2 hPa 0,0 l/m 0,0 km/h (0 Bft) 0 min 0,0 km/h (0 Bft)
25.07.2010 06:24 23,1 C 12,1 C 0,0 UV-I 0,0 C 49 % 81 % 0 % 1021,2 hPa 0,0 l/m 0,0 km/h (0 Bft) 0 min 0,0 km/h (0 Bft)
25.07.2010 06:26 23,0 C 12,2 C 0,0 UV-I 0,0 C 49 % 81 % 0 % 1021,2 hPa 0,0 l/m 0,0 km/h (0 Bft) 0 min 0,0 km/h (0 Bft)
25.07.2010 06:28 23,0 C 12,2 C 0,0 UV-I 0,0 C 49 % 81 % 0 % 1021,2 hPa 0,0 l/m 0,0 km/h (0 Bft) 0 min 0,0 km/h (0 Bft)
25.07.2010 06:30 23,0 C 12,2 C 0,0 UV-I 0,0 C 49 % 81 % 0 % 1021,2 hPa 0,0 l/m 0,0 km/h (0 Bft) 0 min 0,0 km/h (0 Bft)
25.07.2010 06:32 23,0 C 12,3 C 0,0 UV-I 0,0 C 49 % 81 % 0 % 1021,2 hPa 0,0 l/m 0,0 km/h (0 Bft) 0 min 0,0 km/h (0 Bft)
25.07.2010 06:34 23,0 C 12,3 C 0,0 UV-I 0,0 C 49 % 81 % 0 % 1021,2 hPa 0,0 l/m 0,0 km/h (0 Bft) 0 min 0,0 km/h (0 Bft)
25.07.2010 06:36 23,0 C 12,2 C 0,0 UV-I 0,0 C 49 % 81 % 0 % 1021,2 hPa 0,0 l/m 0,0 km/h (0 Bft) 0 min 0,0 km/h (0 Bft)
25.07.2010 06:38 23,0 C 12,2 C 0,0 UV-I 0,0 C 49 % 81 % 0 % 1021,2 hPa 0,0 l/m 0,0 km/h (0 Bft) 0 min 0,0 km/h (0 Bft)
25.07.2010 06:40 23,0 C 12,3 C 0,0 UV-I 0,0 C 49 % 81 % 0 % 1021,2 hPa 0,0 l/m 0,0 km/h (0 Bft) 0 min 0,0 km/h (0 Bft)
25.07.2010 06:42 23,0 C 12,2 C 0,0 UV-I 0,0 C 49 % 81 % 0 % 1021,2 hPa 0,0 l/m 0,0 km/h (0 Bft) 0 min 0,0 km/h (0 Bft)
25.07.2010 06:44 23,1 C 12,3 C 0,0 UV-I 0,0 C 49 % 81 % 0 % 1021,2 hPa 0,0 l/m 0,0 km/h (0 Bft) 0 min 0,0 km/h (0 Bft)
25.07.2010 06:46 23,0 C 12,4 C 0,0 UV-I 0,0 C 49 % 81 % 0 % 1021,2 hPa 0,0 l/m 0,0 km/h (0 Bft) 0 min 0,0 km/h (0 Bft)
25.07.2010 06:48 23,0 C 12,3 C 0,0 UV-I 0,0 C 49 % 81 % 0 % 1020,9 hPa 0,0 l/m 0,0 km/h (0 Bft) 0 min 0,0 km/h (0 Bft)
25.07.2010 06:50 23,0 C 12,4 C 0,0 UV-I 0,0 C 49 % 81 % 0 % 1020,9 hPa 0,0 l/m 0,0 km/h (0 Bft) 0 min 0,0 km/h (0 Bft)
25.07.2010 06:52 23,0 C 12,4 C 0,1 UV-I 0,0 C 49 % 81 % 0 % 1020,9 hPa 0,0 l/m 0,0 km/h (0 Bft) 0 min 0,0 km/h (0 Bft)
25.07.2010 06:54 23,0 C 12,4 C 0,1 UV-I 0,0 C 49 % 81 % 0 % 1020,9 hPa 0,0 l/m 0,0 km/h (0 Bft) 0 min 0,0 km/h (0 Bft)
25.07.2010 06:56 23,0 C 12,5 C 0,0 UV-I 0,0 C 49 % 81 % 0 % 1020,9 hPa 0,0 l/m 0,0 km/h (0 Bft) 0 min 3,2 km/h (1 Bft)
25.07.2010 06:58 23,0 C 12,4 C 0,0 UV-I 0,0 C 49 % 81 % 0 % 1020,9 hPa 0,0 l/m 0,0 km/h (0 Bft) 0 min 3,2 km/h (1 Bft)
25.07.2010 07:00 23,0 C 12,5 C 0,0 UV-I 0,0 C 49 % 81 % 0 % 1020,9 hPa 0,0 l/m 0,0 km/h (0 Bft) 0 min 0,0 km/h (0 Bft)
25.07.2010 07:02 23,1 C 12,5 C 0,1 UV-I 0,0 C 49 % 81 % 0 % 1020,9 hPa 0,0 l/m 0,0 km/h (0 Bft) 0 min 0,0 km/h (0 Bft)
25.07.2010 07:04 23,0 C 12,6 C 0,1 UV-I 0,0 C 49 % 81 % 0 % 1020,9 hPa 0,0 l/m 0,4 km/h (0 Bft) 0 min 0,0 km/h (0 Bft)
25.07.2010 07:06 23,1 C 12,6 C 0,1 UV-I 0,0 C 49 % 81 % 0 % 1020,9 hPa 0,0 l/m 0,4 km/h (0 Bft) 0 min 0,0 km/h (0 Bft)
25.07.2010 07:08 23,0 C 12,7 C 0,1 UV-I 0,0 C 49 % 81 % 0 % 1021,0 hPa 0,0 l/m 0,0 km/h (0 Bft) 0 min 0,0 km/h (0 Bft)
25.07.2010 07:10 23,1 C 12,6 C 0,1 UV-I 0,1 C 49 % 81 % 3 % 1021,0 hPa 0,0 l/m 0,0 km/h (0 Bft) 0 min 3,9 km/h (1 Bft)
25.07.2010 07:12 23,0 C 12,7 C 0,1 UV-I 0,1 C 49 % 81 % 3 % 1021,0 hPa 0,0 l/m 0,0 km/h (0 Bft) 0 min 0,0 km/h (0 Bft)
25.07.2010 07:14 23,1 C 12,7 C 0,1 UV-I 0,2 C 49 % 81 % 6 % 1021,0 hPa 0,0 l/m 0,4 km/h (0 Bft) 0 min 0,0 km/h (0 Bft)
25.07.2010 07:16 23,1 C 12,8 C 0,2 UV-I 0,2 C 49 % 81 % 6 % 1021,0 hPa 0,0 l/m 0,0 km/h (0 Bft) 0 min 0,0 km/h (0 Bft)
25.07.2010 07:18 23,1 C 12,9 C 0,2 UV-I 0,1 C 49 % 81 % 3 % 1021,0 hPa 0,0 l/m 0,0 km/h (0 Bft) 0 min 0,0 km/h (0 Bft)
25.07.2010 07:20 23,1 C 12,8 C 0,2 UV-I 0,3 C 49 % 81 % 9 % 1021,0 hPa 0,0 l/m 0,0 km/h (0 Bft) 0 min 4,2 km/h (1 Bft)
25.07.2010 07:22 23,0 C 12,8 C 0,3 UV-I 0,4 C 49 % 81 % 11 % 1021,0 hPa 0,0 l/m 0,4 km/h (0 Bft) 0 min 0,0 km/h (0 Bft)
25.07.2010 07:24 23,1 C 12,9 C 0,3 UV-I 0,3 C 49 % 81 % 9 % 1021,0 hPa 0,0 l/m 0,4 km/h (0 Bft) 0 min 0,0 km/h (0 Bft)
25.07.2010 07:26 23,0 C 12,9 C 0,5 UV-I 0,4 C 50 % 81 % 11 % 1021,0 hPa 0,0 l/m 0,4 km/h (0 Bft) 0 min 0,0 km/h (0 Bft)
25.07.2010 07:28 23,1 C 13,0 C 0,5 UV-I 0,4 C 50 % 80 % 11 % 1020,6 hPa 0,0 l/m 0,0 km/h (0 Bft) 0 min 0,0 km/h (0 Bft)
25.07.2010 07:30 23,1 C 13,1 C 0,5 UV-I 0,4 C 50 % 80 % 11 % 1020,6 hPa 0,0 l/m 0,0 km/h (0 Bft) 0 min 4,8 km/h (1 Bft)
25.07.2010 07:32 23,1 C 13,1 C 0,5 UV-I 0,5 C 50 % 80 % 14 % 1020,6 hPa 0,0 l/m 0,0 km/h (0 Bft) 0 min 0,0 km/h (0 Bft)
25.07.2010 07:34 23,1 C 13,1 C 0,5 UV-I 0,6 C 50 % 80 % 17 % 1020,6 hPa 0,0 l/m 0,0 km/h (0 Bft) 0 min 0,0 km/h (0 Bft)
25.07.2010 07:36 23,1 C 13,1 C 0,5 UV-I 0,8 C 50 % 80 % 23 % 1020,6 hPa 0,0 l/m 0,4 km/h (0 Bft) 0 min 0,0 km/h (0 Bft)
25.07.2010 07:38 23,1 C 13,3 C 0,5 UV-I 0,6 C 49 % 80 % 17 % 1020,6 hPa 0,0 l/m 0,8 km/h (0 Bft) 0 min 4,2 km/h (1 Bft)
25.07.2010 07:40 23,1 C 13,2 C 0,5 UV-I 0,8 C 50 % 79 % 23 % 1020,6 hPa 0,0 l/m 0,8 km/h (0 Bft) 0 min 4,2 km/h (1 Bft)
25.07.2010 07:42 23,1 C 13,2 C 0,6 UV-I 0,9 C 50 % 79 % 26 % 1020,6 hPa 0,0 l/m 0,8 km/h (0 Bft) 0 min 3,5 km/h (1 Bft)
25.07.2010 07:44 23,1 C 13,3 C 0,6 UV-I 0,9 C 50 % 79 % 26 % 1020,6 hPa 0,0 l/m 0,8 km/h (0 Bft) 0 min 4,8 km/h (1 Bft)
25.07.2010 07:46 23,1 C 13,4 C 0,7 UV-I 0,8 C 50 % 79 % 23 % 1020,6 hPa 0,0 l/m 0,8 km/h (0 Bft) 0 min 5,1 km/h (1 Bft)
25.07.2010 07:48 23,1 C 13,4 C 0,7 UV-I 0,9 C 50 % 79 % 26 % 1020,6 hPa 0,0 l/m 1,2 km/h (1 Bft) 0 min 5,1 km/h (1 Bft)
25.07.2010 07:50 23,1 C 13,5 C 0,7 UV-I 0,9 C 50 % 79 % 26 % 1020,6 hPa 0,0 l/m 1,2 km/h (1 Bft) 0 min 5,1 km/h (1 Bft)
25.07.2010 07:52 23,1 C 13,6 C 1,1 UV-I 0,8 C 50 % 79 % 23 % 1020,6 hPa 0,0 l/m 1,2 km/h (1 Bft) 0 min 0,0 km/h (0 Bft)
25.07.2010 07:54 23,1 C 13,6 C 1,1 UV-I 0,9 C 50 % 79 % 26 % 1020,6 hPa 0,0 l/m 1,2 km/h (1 Bft) 0 min 0,0 km/h (0 Bft)
25.07.2010 07:56 23,1 C 13,7 C 1,2 UV-I 0,9 C 50 % 79 % 26 % 1020,6 hPa 0,0 l/m 1,2 km/h (1 Bft) 0 min 0,0 km/h (0 Bft)
25.07.2010 07:58 23,1 C 13,7 C 1,2 UV-I 1,0 C 50 % 78 % 29 % 1020,6 hPa 0,0 l/m 1,2 km/h (1 Bft) 0 min 4,5 km/h (1 Bft)
25.07.2010 08:00 23,1 C 13,8 C 1,2 UV-I 0,9 C 50 % 79 % 26 % 1020,6 hPa 0,0 l/m 2,0 km/h (1 Bft) 0 min 7,1 km/h (2 Bft)
25.07.2010 08:02 23,1 C 13,9 C 1,1 UV-I 0,8 C 50 % 79 % 23 % 1020,6 hPa 0,0 l/m 2,4 km/h (1 Bft) 0 min 6,8 km/h (2 Bft)
25.07.2010 08:04 23,1 C 13,8 C 1,1 UV-I 0,9 C 50 % 79 % 26 % 1020,6 hPa 0,0 l/m 2,4 km/h (1 Bft) 0 min 6,8 km/h (2 Bft)
25.07.2010 08:06 23,2 C 13,8 C 0,9 UV-I 0,9 C 49 % 78 % 26 % 1020,6 hPa 0,0 l/m 3,2 km/h (1 Bft) 0 min 4,8 km/h (1 Bft)
25.07.2010 08:08 23,1 C 13,9 C 0,9 UV-I 0,8 C 49 % 78 % 23 % 1020,4 hPa 0,0 l/m 4,0 km/h (1 Bft) 0 min 3,9 km/h (1 Bft)
25.07.2010 08:10 23,2 C 13,9 C 0,9 UV-I 0,7 C 50 % 78 % 20 % 1020,4 hPa 0,0 l/m 3,2 km/h (1 Bft) 0 min 8,4 km/h (2 Bft)
25.07.2010 08:12 23,2 C 14,0 C 1,1 UV-I 0,6 C 50 % 78 % 17 % 1020,4 hPa 0,0 l/m 2,8 km/h (1 Bft) 0 min 4,2 km/h (1 Bft)
25.07.2010 08:14 23,2 C 14,0 C 1,1 UV-I 0,7 C 50 % 78 % 20 % 1020,4 hPa 0,0 l/m 2,4 km/h (1 Bft) 0 min 5,1 km/h (1 Bft)
25.07.2010 08:16 23,2 C 14,0 C 1,5 UV-I 0,7 C 50 % 78 % 20 % 1020,4 hPa 0,0 l/m 2,0 km/h (1 Bft) 0 min 5,1 km/h (1 Bft)
25.07.2010 08:18 23,2 C 14,1 C 1,5 UV-I 0,7 C 50 % 78 % 20 % 1020,4 hPa 0,0 l/m 2,0 km/h (1 Bft) 0 min 4,2 km/h (1 Bft)
25.07.2010 08:20 23,2 C 14,1 C 1,5 UV-I 0,9 C 50 % 77 % 26 % 1020,4 hPa 0,0 l/m 2,0 km/h (1 Bft) 0 min 4,5 km/h (1 Bft)
25.07.2010 08:22 23,2 C 14,3 C 1,3 UV-I 0,8 C 50 % 77 % 23 % 1020,4 hPa 0,0 l/m 2,4 km/h (1 Bft) 0 min 4,5 km/h (1 Bft)
25.07.2010 08:24 23,2 C 14,3 C 1,3 UV-I 0,8 C 50 % 77 % 23 % 1020,4 hPa 0,0 l/m 2,4 km/h (1 Bft) 0 min 0,0 km/h (0 Bft)
25.07.2010 08:26 23,2 C 14,4 C 1,3 UV-I 0,9 C 50 % 77 % 26 % 1020,4 hPa 0,0 l/m 2,8 km/h (1 Bft) 0 min 4,8 km/h (1 Bft)
25.07.2010 08:28 23,2 C 14,4 C 1,3 UV-I 1,0 C 50 % 77 % 29 % 1020,4 hPa 0,0 l/m 3,6 km/h (1 Bft) 0 min 7,7 km/h (2 Bft)
25.07.2010 08:30 23,2 C 14,4 C 1,3 UV-I 1,0 C 50 % 77 % 29 % 1020,4 hPa 0,0 l/m 4,0 km/h (1 Bft) 0 min 7,7 km/h (2 Bft)
25.07.2010 08:32 23,2 C 14,5 C 1,3 UV-I 1,0 C 50 % 76 % 29 % 1020,4 hPa 0,0 l/m 4,4 km/h (1 Bft) 0 min 6,1 km/h (2 Bft)
25.07.2010 08:34 23,2 C 14,7 C 1,3 UV-I 0,9 C 50 % 76 % 26 % 1020,4 hPa 0,0 l/m 5,2 km/h (1 Bft) 0 min 6,1 km/h (2 Bft)
25.07.2010 08:36 23,2 C 14,7 C 1,3 UV-I 0,9 C 49 % 76 % 26 % 1020,4 hPa 0,0 l/m 5,6 km/h (1 Bft) 0 min 5,8 km/h (2 Bft)
25.07.2010 08:38 23,2 C 14,7 C 1,3 UV-I 1,1 C 50 % 75 % 31 % 1020,4 hPa 0,0 l/m 5,2 km/h (1 Bft) 0 min 5,8 km/h (2 Bft)
25.07.2010 08:40 23,2 C 14,8 C 1,3 UV-I 1,0 C 50 % 75 % 29 % 1020,4 hPa 0,0 l/m 4,8 km/h (1 Bft) 0 min 11,3 km/h (2 Bft)
25.07.2010 08:42 23,2 C 14,8 C 1,8 UV-I 1,2 C 50 % 75 % 34 % 1020,4 hPa 0,0 l/m 4,0 km/h (1 Bft) 0 min 6,4 km/h (2 Bft)
25.07.2010 08:44 23,2 C 14,9 C 1,8 UV-I 1,2 C 50 % 75 % 34 % 1020,4 hPa 0,0 l/m 4,0 km/h (1 Bft) 0 min 6,4 km/h (2 Bft)
25.07.2010 08:46 23,2 C 15,1 C 1,8 UV-I 1,1 C 49 % 75 % 31 % 1020,4 hPa 0,0 l/m 3,6 km/h (1 Bft) 0 min 5,5 km/h (1 Bft)
25.07.2010 08:48 23,2 C 15,1 C 1,8 UV-I 1,3 C 49 % 75 % 37 % 1020,2 hPa 0,0 l/m 3,2 km/h (1 Bft) 0 min 6,1 km/h (2 Bft)
25.07.2010 08:50 23,2 C 15,1 C 1,8 UV-I 1,4 C 49 % 74 % 40 % 1020,2 hPa 0,0 l/m 3,6 km/h (1 Bft) 0 min 6,8 km/h (2 Bft)
25.07.2010 08:52 23,2 C 15,2 C 1,2 UV-I 1,3 C 49 % 73 % 37 % 1020,2 hPa 0,0 l/m 4,0 km/h (1 Bft) 0 min 6,8 km/h (2 Bft)
25.07.2010 08:54 23,2 C 15,3 C 1,2 UV-I 1,2 C 49 % 73 % 34 % 1020,2 hPa 0,0 l/m 3,6 km/h (1 Bft) 0 min 4,8 km/h (1 Bft)
25.07.2010 08:56 23,2 C 15,2 C 0,6 UV-I 1,2 C 49 % 73 % 34 % 1020,2 hPa 0,0 l/m 4,0 km/h (1 Bft) 0 min 6,1 km/h (2 Bft)
25.07.2010 08:58 23,2 C 15,3 C 0,6 UV-I 1,1 C 49 % 73 % 31 % 1020,2 hPa 0,0 l/m 3,6 km/h (1 Bft) 0 min 6,1 km/h (2 Bft)
25.07.2010 09:00 23,2 C 15,3 C 0,6 UV-I 1,0 C 49 % 73 % 29 % 1020,2 hPa 0,0 l/m 2,8 km/h (1 Bft) 0 min 3,2 km/h (1 Bft)
25.07.2010 09:02 23,2 C 15,4 C 0,3 UV-I 0,8 C 49 % 72 % 23 % 1020,2 hPa 0,0 l/m 2,4 km/h (1 Bft) 0 min 4,2 km/h (1 Bft)
25.07.2010 09:04 23,2 C 15,4 C 0,3 UV-I 0,8 C 49 % 72 % 23 % 1020,2 hPa 0,0 l/m 2,4 km/h (1 Bft) 0 min 4,2 km/h (1 Bft)
25.07.2010 09:06 23,3 C 15,4 C 0,1 UV-I 0,6 C 49 % 72 % 17 % 1020,2 hPa 0,0 l/m 1,6 km/h (1 Bft) 0 min 0,0 km/h (0 Bft)
25.07.2010 09:08 23,2 C 15,4 C 0,1 UV-I 0,6 C 49 % 71 % 17 % 1020,2 hPa 0,0 l/m 2,0 km/h (1 Bft) 0 min 11,3 km/h (2 Bft)
25.07.2010 09:10 23,2 C 15,3 C 0,1 UV-I 0,6 C 49 % 71 % 17 % 1020,2 hPa 0,0 l/m 2,0 km/h (1 Bft) 0 min 11,3 km/h (2 Bft)
25.07.2010 09:12 23,3 C 15,4 C 0,0 UV-I 0,4 C 49 % 70 % 11 % 1020,2 hPa 0,0 l/m 2,0 km/h (1 Bft) 0 min 0,0 km/h (0 Bft)
25.07.2010 09:14 23,3 C 15,4 C 0,0 UV-I 0,4 C 49 % 70 % 11 % 1020,2 hPa 0,0 l/m 2,0 km/h (1 Bft) 0 min 5,1 km/h (1 Bft)
25.07.2010 09:16 23,3 C 15,5 C 0,3 UV-I 0,3 C 49 % 70 % 9 % 1020,2 hPa 0,0 l/m 2,4 km/h (1 Bft) 0 min 5,1 km/h (1 Bft)
25.07.2010 09:18 23,2 C 15,5 C 0,3 UV-I 0,3 C 49 % 70 % 9 % 1020,2 hPa 0,0 l/m 2,0 km/h (1 Bft) 0 min 0,0 km/h (0 Bft)
25.07.2010 09:20 23,2 C 15,5 C 0,3 UV-I 0,3 C 49 % 70 % 9 % 1020,2 hPa 0,0 l/m 1,6 km/h (1 Bft) 0 min 0,0 km/h (0 Bft)
25.07.2010 09:22 23,2 C 15,5 C 0,8 UV-I 0,3 C 49 % 70 % 9 % 1020,2 hPa 0,0 l/m 1,6 km/h (1 Bft) 0 min 3,2 km/h (1 Bft)
25.07.2010 09:24 23,2 C 15,5 C 0,8 UV-I 0,4 C 49 % 70 % 11 % 1020,2 hPa 0,0 l/m 2,0 km/h (1 Bft) 0 min 3,2 km/h (1 Bft)
25.07.2010 09:26 23,3 C 15,5 C 2,0 UV-I 0,6 C 49 % 70 % 17 % 1020,2 hPa 0,0 l/m 2,0 km/h (1 Bft) 0 min 3,9 km/h (1 Bft)
25.07.2010 09:28 23,3 C 15,6 C 2,0 UV-I 0,6 C 49 % 69 % 17 % 1020,1 hPa 0,0 l/m 2,4 km/h (1 Bft) 0 min 5,5 km/h (1 Bft)
25.07.2010 09:30 23,3 C 15,6 C 2,0 UV-I 0,8 C 49 % 69 % 23 % 1020,1 hPa 0,0 l/m 2,4 km/h (1 Bft) 0 min 5,5 km/h (1 Bft)
25.07.2010 09:32 23,2 C 15,7 C 2,4 UV-I 0,9 C 49 % 69 % 26 % 1020,1 hPa 0,0 l/m 2,4 km/h (1 Bft) 0 min 0,0 km/h (0 Bft)
25.07.2010 09:34 23,3 C 15,8 C 2,4 UV-I 1,0 C 49 % 69 % 29 % 1020,1 hPa 0,0 l/m 2,0 km/h (1 Bft) 0 min 0,0 km/h (0 Bft)
25.07.2010 09:36 23,2 C 15,9 C 2,4 UV-I 1,0 C 49 % 68 % 29 % 1020,1 hPa 0,0 l/m 2,0 km/h (1 Bft) 0 min 7,1 km/h (2 Bft)
25.07.2010 09:38 23,2 C 15,9 C 2,4 UV-I 1,2 C 49 % 68 % 34 % 1020,1 hPa 0,0 l/m 2,0 km/h (1 Bft) 0 min 7,1 km/h (2 Bft)
25.07.2010 09:40 23,2 C 16,0 C 2,4 UV-I 1,1 C 49 % 68 % 31 % 1020,1 hPa 0,0 l/m 2,0 km/h (1 Bft) 0 min 5,5 km/h (1 Bft)
25.07.2010 09:42 23,2 C 16,0 C 2,2 UV-I 1,2 C 49 % 68 % 34 % 1020,1 hPa 0,0 l/m 2,4 km/h (1 Bft) 0 min 0,0 km/h (0 Bft)
25.07.2010 09:44 23,2 C 16,1 C 2,2 UV-I 1,2 C 49 % 68 % 34 % 1020,1 hPa 0,0 l/m 2,8 km/h (1 Bft) 0 min 12,2 km/h (2 Bft)
25.07.2010 09:46 23,4 C 16,1 C 2,5 UV-I 1,2 C 49 % 67 % 34 % 1020,1 hPa 0,0 l/m 2,8 km/h (1 Bft) 0 min 12,2 km/h (2 Bft)
25.07.2010 09:48 23,4 C 16,1 C 2,5 UV-I 1,3 C 49 % 67 % 37 % 1020,1 hPa 0,0 l/m 2,4 km/h (1 Bft) 0 min 0,0 km/h (0 Bft)
25.07.2010 09:50 23,4 C 16,2 C 2,5 UV-I 1,3 C 49 % 67 % 37 % 1020,1 hPa 0,0 l/m 2,4 km/h (1 Bft) 0 min 12,2 km/h (2 Bft)
25.07.2010 09:52 23,4 C 16,3 C 2,8 UV-I 1,2 C 49 % 67 % 34 % 1020,1 hPa 0,0 l/m 3,2 km/h (1 Bft) 0 min 8,4 km/h (2 Bft)
25.07.2010 09:54 23,4 C 16,3 C 2,8 UV-I 1,2 C 49 % 67 % 34 % 1020,1 hPa 0,0 l/m 3,6 km/h (1 Bft) 0 min 8,4 km/h (2 Bft)
25.07.2010 09:56 23,4 C 16,3 C 3,0 UV-I 1,2 C 49 % 67 % 34 % 1020,1 hPa 0,0 l/m 3,6 km/h (1 Bft) 0 min 7,7 km/h (2 Bft)
25.07.2010 09:58 23,4 C 16,2 C 3,0 UV-I 1,3 C 49 % 66 % 37 % 1020,1 hPa 0,0 l/m 3,6 km/h (1 Bft) 0 min 7,7 km/h (2 Bft)
25.07.2010 10:00 23,4 C 16,4 C 3,0 UV-I 1,2 C 49 % 66 % 34 % 1020,1 hPa 0,0 l/m 4,0 km/h (1 Bft) 0 min 3,9 km/h (1 Bft)
25.07.2010 10:02 23,4 C 16,4 C 2,8 UV-I 1,3 C 49 % 67 % 37 % 1020,1 hPa 0,0 l/m 4,0 km/h (1 Bft) 0 min 3,9 km/h (1 Bft)
25.07.2010 10:04 23,5 C 16,5 C 2,8 UV-I 1,2 C 49 % 67 % 34 % 1020,1 hPa 0,0 l/m 3,2 km/h (1 Bft) 0 min 4,8 km/h (1 Bft)
25.07.2010 10:06 23,5 C 16,4 C 2,5 UV-I 1,3 C 49 % 67 % 37 % 1020,1 hPa 0,0 l/m 4,0 km/h (1 Bft) 0 min 5,5 km/h (1 Bft)
25.07.2010 10:08 23,5 C 16,4 C 2,5 UV-I 1,3 C 49 % 67 % 37 % 1020,2 hPa 0,0 l/m 4,0 km/h (1 Bft) 0 min 5,5 km/h (1 Bft)
25.07.2010 10:10 23,5 C 16,5 C 2,5 UV-I 1,1 C 49 % 67 % 31 % 1020,2 hPa 0,0 l/m 3,2 km/h (1 Bft) 0 min 4,2 km/h (1 Bft)
25.07.2010 10:12 23,5 C 16,5 C 2,5 UV-I 1,2 C 49 % 67 % 34 % 1020,2 hPa 0,0 l/m 3,2 km/h (1 Bft) 0 min 4,5 km/h (1 Bft)
25.07.2010 10:14 23,5 C 16,5 C 2,5 UV-I 1,2 C 49 % 67 % 34 % 1020,2 hPa 0,0 l/m 4,4 km/h (1 Bft) 0 min 7,1 km/h (2 Bft)
25.07.2010 10:16 23,5 C 16,5 C 2,5 UV-I 1,1 C 48 % 67 % 31 % 1020,2 hPa 0,0 l/m 3,6 km/h (1 Bft) 0 min 7,1 km/h (2 Bft)
25.07.2010 10:18 23,5 C 16,5 C 2,5 UV-I 1,1 C 48 % 67 % 31 % 1020,2 hPa 0,0 l/m 3,2 km/h (1 Bft) 0 min 3,2 km/h (1 Bft)
25.07.2010 10:20 23,5 C 16,5 C 2,5 UV-I 1,1 C 48 % 67 % 31 % 1020,2 hPa 0,0 l/m 3,2 km/h (1 Bft) 0 min 0,0 km/h (0 Bft)
25.07.2010 10:22 23,5 C 16,7 C 2,2 UV-I 1,0 C 48 % 67 % 29 % 1020,2 hPa 0,0 l/m 2,8 km/h (1 Bft) 0 min 0,0 km/h (0 Bft)
25.07.2010 10:24 23,5 C 16,6 C 2,2 UV-I 1,1 C 48 % 67 % 31 % 1020,2 hPa 0,0 l/m 1,6 km/h (1 Bft) 0 min 0,0 km/h (0 Bft)
25.07.2010 10:26 23,5 C 16,6 C 2,1 UV-I 1,1 C 48 % 67 % 31 % 1020,2 hPa 0,0 l/m 0,8 km/h (0 Bft) 0 min 4,2 km/h (1 Bft)
25.07.2010 10:28 23,5 C 16,7 C 2,1 UV-I 1,0 C 48 % 67 % 29 % 1020,1 hPa 0,0 l/m 0,8 km/h (0 Bft) 0 min 4,2 km/h (1 Bft)
25.07.2010 10:30 23,5 C 16,7 C 2,1 UV-I 1,1 C 48 % 67 % 31 % 1020,1 hPa 0,0 l/m 0,4 km/h (0 Bft) 0 min 3,2 km/h (1 Bft)
25.07.2010 10:32 23,5 C 16,9 C 2,6 UV-I 1,0 C 48 % 67 % 29 % 1020,1 hPa 0,0 l/m 0,8 km/h (0 Bft) 0 min 5,5 km/h (1 Bft)
25.07.2010 10:34 23,5 C 16,9 C 2,6 UV-I 1,1 C 48 % 67 % 31 % 1020,1 hPa 0,0 l/m 1,6 km/h (1 Bft) 0 min 7,7 km/h (2 Bft)
25.07.2010 10:36 23,6 C 16,8 C 3,7 UV-I 1,3 C 48 % 67 % 37 % 1020,1 hPa 0,0 l/m 2,4 km/h (1 Bft) 0 min 7,7 km/h (2 Bft)
25.07.2010 10:38 23,6 C 16,9 C 3,7 UV-I 1,4 C 48 % 67 % 40 % 1020,1 hPa 0,0 l/m 2,4 km/h (1 Bft) 0 min 7,7 km/h (2 Bft)
25.07.2010 10:40 23,6 C 17,0 C 3,7 UV-I 1,5 C 48 % 67 % 43 % 1020,1 hPa 0,0 l/m 3,2 km/h (1 Bft) 0 min 9,7 km/h (2 Bft)
25.07.2010 10:42 23,6 C 17,1 C 4,7 UV-I 1,5 C 48 % 66 % 43 % 1020,1 hPa 0,0 l/m 4,0 km/h (1 Bft) 0 min 9,7 km/h (2 Bft)
25.07.2010 10:44 23,6 C 17,1 C 4,7 UV-I 1,7 C 48 % 66 % 49 % 1020,1 hPa 0,0 l/m 4,0 km/h (1 Bft) 0 min 6,8 km/h (2 Bft)
25.07.2010 10:46 23,6 C 17,2 C 6,5 UV-I 1,8 C 48 % 66 % 51 % 1020,1 hPa 0,0 l/m 4,4 km/h (1 Bft) 0 min 6,8 km/h (2 Bft)
25.07.2010 10:48 23,6 C 17,2 C 6,5 UV-I 2,2 C 48 % 66 % 63 % 1020,1 hPa 0,0 l/m 4,4 km/h (1 Bft) 0 min 5,8 km/h (2 Bft)
25.07.2010 10:50 23,6 C 17,3 C 6,5 UV-I 3,2 C 48 % 66 % 91 % 1020,1 hPa 0,0 l/m 4,4 km/h (1 Bft) 2 min 4,2 km/h (1 Bft)
25.07.2010 10:52 23,6 C 17,5 C 11,6 UV-I 3,7 C 48 % 65 % 100 % 1020,1 hPa 0,0 l/m 4,0 km/h (1 Bft) 2 min 4,2 km/h (1 Bft)
25.07.2010 10:54 23,6 C 17,7 C 11,6 UV-I 4,3 C 48 % 65 % 100 % 1020,1 hPa 0,0 l/m 3,6 km/h (1 Bft) 2 min 0,0 km/h (0 Bft)
25.07.2010 10:56 23,7 C 17,7 C 10,7 UV-I 5,0 C 48 % 66 % 100 % 1020,1 hPa 0,0 l/m 2,4 km/h (1 Bft) 2 min 4,2 km/h (1 Bft)
25.07.2010 10:58 23,7 C 17,9 C 10,7 UV-I 5,4 C 48 % 66 % 100 % 1020,1 hPa 0,0 l/m 2,4 km/h (1 Bft) 2 min 10,6 km/h (2 Bft)
25.07.2010 11:00 23,7 C 18,0 C 10,7 UV-I 5,2 C 48 % 65 % 100 % 1020,1 hPa 0,0 l/m 3,6 km/h (1 Bft) 2 min 10,6 km/h (2 Bft)
25.07.2010 11:02 23,7 C 18,3 C 8,9 UV-I 4,8 C 48 % 65 % 100 % 1020,1 hPa 0,0 l/m 4,0 km/h (1 Bft) 2 min 6,4 km/h (2 Bft)
25.07.2010 11:04 23,7 C 18,3 C 8,9 UV-I 4,8 C 48 % 65 % 100 % 1020,1 hPa 0,0 l/m 4,4 km/h (1 Bft) 2 min 6,4 km/h (2 Bft)
25.07.2010 11:06 23,7 C 18,5 C 8,6 UV-I 4,6 C 48 % 64 % 100 % 1020,1 hPa 0,0 l/m 5,2 km/h (1 Bft) 2 min 5,1 km/h (1 Bft)
25.07.2010 11:08 23,8 C 18,5 C 8,6 UV-I 4,5 C 48 % 63 % 100 % 1019,6 hPa 0,0 l/m 5,6 km/h (1 Bft) 2 min 3,2 km/h (1 Bft)
25.07.2010 11:10 23,8 C 18,4 C 8,6 UV-I 4,6 C 48 % 63 % 100 % 1019,6 hPa 0,0 l/m 4,4 km/h (1 Bft) 2 min 4,8 km/h (1 Bft)
25.07.2010 11:12 23,8 C 18,4 C 9,5 UV-I 4,9 C 48 % 64 % 100 % 1019,6 hPa 0,0 l/m 3,2 km/h (1 Bft) 2 min 4,8 km/h (1 Bft)
25.07.2010 11:14 23,8 C 18,5 C 9,5 UV-I 5,3 C 48 % 64 % 100 % 1019,6 hPa 0,0 l/m 2,8 km/h (1 Bft) 2 min 4,8 km/h (1 Bft)
25.07.2010 11:16 23,8 C 18,7 C 10,9 UV-I 5,6 C 48 % 64 % 100 % 1019,6 hPa 0,0 l/m 2,4 km/h (1 Bft) 2 min 4,8 km/h (1 Bft)
25.07.2010 11:18 23,8 C 18,7 C 10,9 UV-I 6,0 C 48 % 63 % 100 % 1019,6 hPa 0,0 l/m 3,2 km/h (1 Bft) 2 min 9,0 km/h (2 Bft)
25.07.2010 11:20 23,9 C 18,7 C 10,9 UV-I 6,0 C 48 % 63 % 100 % 1019,6 hPa 0,0 l/m 3,6 km/h (1 Bft) 2 min 9,0 km/h (2 Bft)
25.07.2010 11:22 23,9 C 18,7 C 10,9 UV-I 6,1 C 48 % 63 % 100 % 1019,6 hPa 0,0 l/m 4,0 km/h (1 Bft) 2 min 10,9 km/h (2 Bft)
25.07.2010 11:24 23,9 C 18,8 C 10,9 UV-I 6,0 C 48 % 63 % 100 % 1019,6 hPa 0,0 l/m 4,8 km/h (1 Bft) 2 min 0,0 km/h (0 Bft)
25.07.2010 11:26 24,0 C 18,9 C 11,4 UV-I 6,0 C 48 % 63 % 100 % 1019,6 hPa 0,0 l/m 4,4 km/h (1 Bft) 2 min 4,2 km/h (1 Bft)
25.07.2010 11:28 24,0 C 19,1 C 11,4 UV-I 5,9 C 48 % 63 % 100 % 1020,1 hPa 0,0 l/m 4,4 km/h (1 Bft) 2 min 6,1 km/h (2 Bft)
25.07.2010 11:30 24,0 C 19,1 C 11,4 UV-I 6,2 C 48 % 62 % 100 % 1020,1 hPa 0,0 l/m 3,6 km/h (1 Bft) 2 min 9,3 km/h (2 Bft)
25.07.2010 11:32 24,0 C 19,2 C 12,0 UV-I 6,2 C 48 % 62 % 100 % 1020,1 hPa 0,0 l/m 3,6 km/h (1 Bft) 2 min 9,3 km/h (2 Bft)
25.07.2010 11:34 24,0 C 19,2 C 12,0 UV-I 6,4 C 48 % 62 % 100 % 1020,1 hPa 0,0 l/m 2,8 km/h (1 Bft) 2 min 6,4 km/h (2 Bft)
25.07.2010 11:36 24,0 C 19,4 C 13,3 UV-I 6,6 C 48 % 62 % 100 % 1020,1 hPa 0,0 l/m 3,6 km/h (1 Bft) 2 min 10,3 km/h (2 Bft)
25.07.2010 11:38 24,0 C 19,4 C 13,3 UV-I 6,8 C 48 % 61 % 100 % 1020,1 hPa 0,0 l/m 4,0 km/h (1 Bft) 2 min 10,3 km/h (2 Bft)
25.07.2010 11:40 24,0 C 19,5 C 13,3 UV-I 6,9 C 47 % 62 % 100 % 1020,1 hPa 0,0 l/m 4,0 km/h (1 Bft) 2 min 14,2 km/h (3 Bft)
25.07.2010 11:44 24,0 C 19,9 C 13,7 UV-I 6,8 C 47 % 59 % 100 % 1020,1 hPa 0,0 l/m 5,2 km/h (1 Bft) 2 min 10,6 km/h (2 Bft)
25.07.2010 11:46 24,1 C 19,9 C 12,4 UV-I 6,6 C 47 % 59 % 100 % 1020,1 hPa 0,0 l/m 6,4 km/h (2 Bft) 2 min 10,9 km/h (2 Bft)
25.07.2010 11:48 24,1 C 19,9 C 12,4 UV-I 6,3 C 47 % 59 % 100 % 1019,8 hPa 0,0 l/m 6,0 km/h (2 Bft) 2 min 8,0 km/h (2 Bft)
25.07.2010 11:50 24,0 C 19,9 C 12,4 UV-I 5,8 C 47 % 59 % 100 % 1019,8 hPa 0,0 l/m 6,4 km/h (2 Bft) 2 min 8,0 km/h (2 Bft)
25.07.2010 11:52 24,0 C 19,9 C 8,6 UV-I 5,4 C 47 % 59 % 100 % 1019,8 hPa 0,0 l/m 6,8 km/h (2 Bft) 2 min 7,7 km/h (2 Bft)
25.07.2010 11:54 24,0 C 19,9 C 8,6 UV-I 5,1 C 47 % 59 % 100 % 1019,8 hPa 0,0 l/m 6,4 km/h (2 Bft) 2 min 10,6 km/h (2 Bft)
25.07.2010 11:56 24,0 C 19,9 C 8,3 UV-I 4,7 C 46 % 59 % 100 % 1019,8 hPa 0,0 l/m 5,6 km/h (1 Bft) 2 min 10,6 km/h (2 Bft)
25.07.2010 11:58 24,0 C 19,9 C 8,3 UV-I 4,5 C 46 % 59 % 100 % 1019,8 hPa 0,0 l/m 5,2 km/h (1 Bft) 2 min 7,4 km/h (2 Bft)
25.07.2010 12:00 24,0 C 20,0 C 8,3 UV-I 4,3 C 47 % 58 % 100 % 1019,8 hPa 0,0 l/m 5,6 km/h (1 Bft) 2 min 14,5 km/h (3 Bft)
25.07.2010 12:02 24,0 C 20,0 C 8,5 UV-I 4,3 C 46 % 59 % 100 % 1019,8 hPa 0,0 l/m 5,2 km/h (1 Bft) 2 min 9,3 km/h (2 Bft)
25.07.2010 12:04 24,0 C 20,0 C 8,5 UV-I 4,4 C 46 % 60 % 100 % 1019,8 hPa 0,0 l/m 4,8 km/h (1 Bft) 2 min 5,1 km/h (1 Bft)
25.07.2010 12:06 24,0 C 20,1 C 11,0 UV-I 4,7 C 47 % 60 % 100 % 1019,8 hPa 0,0 l/m 4,4 km/h (1 Bft) 2 min 5,5 km/h (1 Bft)
25.07.2010 12:08 24,0 C 20,2 C 11,0 UV-I 5,3 C 47 % 60 % 100 % 1019,6 hPa 0,0 l/m 4,4 km/h (1 Bft) 2 min 7,4 km/h (2 Bft)
25.07.2010 12:10 24,0 C 20,4 C 11,0 UV-I 5,5 C 47 % 59 % 100 % 1019,6 hPa 0,0 l/m 4,8 km/h (1 Bft) 2 min 8,0 km/h (2 Bft)
25.07.2010 12:12 24,0 C 20,5 C 11,0 UV-I 5,7 C 47 % 59 % 100 % 1019,6 hPa 0,0 l/m 4,8 km/h (1 Bft) 2 min 8,0 km/h (2 Bft)
25.07.2010 12:14 24,0 C 20,7 C 11,0 UV-I 5,7 C 47 % 58 % 100 % 1019,6 hPa 0,0 l/m 5,6 km/h (1 Bft) 2 min 7,4 km/h (2 Bft)
25.07.2010 12:16 24,0 C 20,8 C 12,1 UV-I 5,7 C 47 % 58 % 100 % 1019,6 hPa 0,0 l/m 5,2 km/h (1 Bft) 2 min 6,1 km/h (2 Bft)
25.07.2010 12:18 24,0 C 21,1 C 12,1 UV-I 6,2 C 47 % 58 % 100 % 1019,6 hPa 0,0 l/m 6,0 km/h (2 Bft) 2 min 10,3 km/h (2 Bft)
25.07.2010 12:20 24,1 C 21,1 C 12,1 UV-I 6,5 C 47 % 58 % 100 % 1019,6 hPa 0,0 l/m 5,6 km/h (1 Bft) 2 min 10,3 km/h (2 Bft)
25.07.2010 12:22 24,1 C 21,2 C 11,2 UV-I 6,6 C 47 % 57 % 100 % 1019,6 hPa 0,0 l/m 5,6 km/h (1 Bft) 2 min 8,4 km/h (2 Bft)
25.07.2010 12:24 24,1 C 21,2 C 11,2 UV-I 6,7 C 47 % 58 % 100 % 1019,6 hPa 0,0 l/m 5,6 km/h (1 Bft) 2 min 7,7 km/h (2 Bft)
25.07.2010 12:26 24,1 C 21,3 C 9,3 UV-I 6,4 C 47 % 57 % 100 % 1019,6 hPa 0,0 l/m 5,6 km/h (1 Bft) 2 min 7,1 km/h (2 Bft)
25.07.2010 12:28 24,1 C 21,3 C 9,3 UV-I 6,3 C 47 % 57 % 100 % 1019,6 hPa 0,0 l/m 5,6 km/h (1 Bft) 2 min 9,0 km/h (2 Bft)
25.07.2010 12:30 24,1 C 21,3 C 9,3 UV-I 6,2 C 47 % 57 % 100 % 1019,6 hPa 0,0 l/m 6,0 km/h (2 Bft) 2 min 9,0 km/h (2 Bft)
25.07.2010 12:32 24,2 C 21,4 C 9,1 UV-I 6,0 C 47 % 57 % 100 % 1019,6 hPa 0,0 l/m 6,0 km/h (2 Bft) 2 min 9,3 km/h (2 Bft)
25.07.2010 12:34 24,2 C 21,5 C 9,1 UV-I 5,7 C 47 % 56 % 100 % 1019,6 hPa 0,0 l/m 5,6 km/h (1 Bft) 2 min 9,3 km/h (2 Bft)
25.07.2010 12:36 24,2 C 21,5 C 9,1 UV-I 5,6 C 47 % 55 % 100 % 1019,6 hPa 0,0 l/m 6,4 km/h (2 Bft) 2 min 8,7 km/h (2 Bft)
25.07.2010 12:38 24,2 C 21,5 C 9,1 UV-I 5,5 C 47 % 55 % 100 % 1019,6 hPa 0,0 l/m 6,8 km/h (2 Bft) 2 min 8,7 km/h (2 Bft)
25.07.2010 12:40 24,2 C 21,6 C 9,1 UV-I 5,4 C 47 % 55 % 100 % 1019,6 hPa 0,0 l/m 6,8 km/h (2 Bft) 2 min 15,1 km/h (3 Bft)
25.07.2010 12:42 24,2 C 21,6 C 9,5 UV-I 5,5 C 47 % 55 % 100 % 1019,6 hPa 0,0 l/m 6,8 km/h (2 Bft) 2 min 7,4 km/h (2 Bft)
25.07.2010 12:44 24,3 C 21,6 C 9,5 UV-I 5,5 C 47 % 54 % 100 % 1019,6 hPa 0,0 l/m 6,4 km/h (2 Bft) 2 min 5,8 km/h (2 Bft)
25.07.2010 12:46 24,3 C 21,7 C 10,1 UV-I 5,6 C 46 % 55 % 100 % 1019,6 hPa 0,0 l/m 6,4 km/h (2 Bft) 2 min 12,2 km/h (2 Bft)
25.07.2010 12:48 24,3 C 21,8 C 10,1 UV-I 5,8 C 46 % 54 % 100 % 1019,1 hPa 0,0 l/m 6,0 km/h (2 Bft) 2 min 12,2 km/h (2 Bft)
25.07.2010 12:52 24,2 C 22,2 C 10,6 UV-I 6,2 C 46 % 53 % 100 % 1019,1 hPa 0,0 l/m 5,2 km/h (1 Bft) 2 min 4,8 km/h (1 Bft)
25.07.2010 12:54 24,2 C 22,3 C 10,6 UV-I 6,2 C 46 % 52 % 100 % 1019,1 hPa 0,0 l/m 5,6 km/h (1 Bft) 2 min 9,0 km/h (2 Bft)
25.07.2010 12:56 24,4 C 22,3 C 8,6 UV-I 5,9 C 46 % 53 % 100 % 1019,1 hPa 0,0 l/m 6,0 km/h (2 Bft) 2 min 9,0 km/h (2 Bft)
25.07.2010 12:58 24,4 C 22,3 C 8,6 UV-I 5,8 C 46 % 52 % 100 % 1019,1 hPa 0,0 l/m 5,6 km/h (1 Bft) 2 min 4,5 km/h (1 Bft)
25.07.2010 13:00 24,4 C 22,2 C 8,6 UV-I 6,0 C 46 % 52 % 100 % 1019,1 hPa 0,0 l/m 6,0 km/h (2 Bft) 2 min 13,5 km/h (3 Bft)
25.07.2010 13:02 24,4 C 22,3 C 9,9 UV-I 5,8 C 46 % 53 % 100 % 1019,1 hPa 0,0 l/m 6,8 km/h (2 Bft) 2 min 13,5 km/h (3 Bft)
25.07.2010 13:04 24,4 C 22,4 C 9,9 UV-I 6,0 C 46 % 53 % 100 % 1019,1 hPa 0,0 l/m 6,4 km/h (2 Bft) 2 min 6,8 km/h (2 Bft)
25.07.2010 13:06 24,4 C 22,5 C 11,7 UV-I 6,4 C 46 % 52 % 100 % 1019,1 hPa 0,0 l/m 5,6 km/h (1 Bft) 2 min 6,8 km/h (2 Bft)
25.07.2010 13:08 24,4 C 22,7 C 11,7 UV-I 6,6 C 46 % 52 % 100 % 1019,5 hPa 0,0 l/m 6,0 km/h (2 Bft) 2 min 5,5 km/h (1 Bft)
25.07.2010 13:10 24,5 C 22,7 C 11,7 UV-I 6,9 C 46 % 52 % 100 % 1019,5 hPa 0,0 l/m 5,6 km/h (1 Bft) 2 min 5,5 km/h (1 Bft)
25.07.2010 13:12 24,5 C 22,8 C 11,7 UV-I 7,1 C 46 % 53 % 100 % 1019,5 hPa 0,0 l/m 5,2 km/h (1 Bft) 2 min 5,1 km/h (1 Bft)
25.07.2010 13:14 24,5 C 22,9 C 11,7 UV-I 7,3 C 46 % 53 % 100 % 1019,5 hPa 0,0 l/m 5,2 km/h (1 Bft) 2 min 8,0 km/h (2 Bft)
25.07.2010 13:16 24,5 C 22,9 C 11,3 UV-I 7,4 C 46 % 51 % 100 % 1019,5 hPa 0,0 l/m 5,2 km/h (1 Bft) 2 min 8,0 km/h (2 Bft)
25.07.2010 13:18 24,6 C 22,9 C 11,3 UV-I 7,1 C 46 % 52 % 100 % 1019,5 hPa 0,0 l/m 5,6 km/h (1 Bft) 2 min 9,7 km/h (2 Bft)
25.07.2010 13:20 24,6 C 22,7 C 11,3 UV-I 6,5 C 46 % 52 % 100 % 1019,5 hPa 0,0 l/m 5,2 km/h (1 Bft) 2 min 9,7 km/h (2 Bft)
25.07.2010 13:22 24,6 C 22,7 C 9,3 UV-I 6,1 C 46 % 52 % 100 % 1019,5 hPa 0,0 l/m 5,6 km/h (1 Bft) 2 min 7,1 km/h (2 Bft)
25.07.2010 13:24 24,6 C 22,7 C 9,3 UV-I 5,6 C 46 % 53 % 100 % 1019,5 hPa 0,0 l/m 6,0 km/h (2 Bft) 2 min 7,1 km/h (2 Bft)
25.07.2010 13:26 24,6 C 22,7 C 11,7 UV-I 5,9 C 46 % 53 % 100 % 1019,5 hPa 0,0 l/m 5,6 km/h (1 Bft) 2 min 7,1 km/h (2 Bft)
25.07.2010 13:28 24,7 C 22,9 C 11,7 UV-I 6,4 C 46 % 53 % 100 % 1019,1 hPa 0,0 l/m 5,6 km/h (1 Bft) 2 min 7,4 km/h (2 Bft)
25.07.2010 13:30 24,7 C 23,0 C 11,7 UV-I 6,8 C 46 % 53 % 100 % 1019,1 hPa 0,0 l/m 5,2 km/h (1 Bft) 2 min 7,4 km/h (2 Bft)
25.07.2010 13:32 24,7 C 23,0 C 12,2 UV-I 6,9 C 46 % 54 % 100 % 1019,1 hPa 0,0 l/m 5,2 km/h (1 Bft) 2 min 5,1 km/h (1 Bft)
25.07.2010 13:34 24,7 C 23,2 C 12,2 UV-I 6,6 C 46 % 53 % 100 % 1019,1 hPa 0,0 l/m 5,6 km/h (1 Bft) 2 min 6,4 km/h (2 Bft)
25.07.2010 13:38 24,8 C 23,3 C 10,4 UV-I 6,5 C 46 % 52 % 100 % 1019,1 hPa 0,0 l/m 7,2 km/h (2 Bft) 2 min 8,7 km/h (2 Bft)
25.07.2010 13:40 24,8 C 23,3 C 10,4 UV-I 6,0 C 46 % 52 % 100 % 1019,1 hPa 0,0 l/m 7,2 km/h (2 Bft) 2 min 7,7 km/h (2 Bft)
25.07.2010 13:42 24,8 C 23,2 C 7,2 UV-I 5,4 C 46 % 52 % 100 % 1019,1 hPa 0,0 l/m 6,8 km/h (2 Bft) 2 min 7,7 km/h (2 Bft)
25.07.2010 13:44 24,8 C 23,1 C 7,2 UV-I 5,0 C 46 % 52 % 100 % 1019,1 hPa 0,0 l/m 6,8 km/h (2 Bft) 2 min 9,0 km/h (2 Bft)
25.07.2010 13:46 24,8 C 22,8 C 4,8 UV-I 4,8 C 46 % 52 % 100 % 1019,1 hPa 0,0 l/m 6,4 km/h (2 Bft) 2 min 9,0 km/h (2 Bft)
25.07.2010 13:48 24,8 C 22,6 C 4,8 UV-I 4,2 C 46 % 53 % 100 % 1019,4 hPa 0,0 l/m 6,0 km/h (2 Bft) 2 min 6,4 km/h (2 Bft)
25.07.2010 13:50 24,8 C 22,4 C 4,8 UV-I 3,6 C 46 % 54 % 100 % 1019,4 hPa 0,0 l/m 4,8 km/h (1 Bft) 2 min 15,8 km/h (3 Bft)
25.07.2010 13:52 24,9 C 22,3 C 2,4 UV-I 3,2 C 46 % 54 % 91 % 1019,4 hPa 0,0 l/m 4,4 km/h (1 Bft) 2 min 0,0 km/h (0 Bft)
25.07.2010 13:54 24,8 C 22,3 C 2,4 UV-I 2,6 C 46 % 55 % 74 % 1019,4 hPa 0,0 l/m 3,6 km/h (1 Bft) 0 min 4,2 km/h (1 Bft)
25.07.2010 13:56 24,8 C 22,0 C 1,4 UV-I 2,3 C 46 % 55 % 66 % 1019,4 hPa 0,0 l/m 2,8 km/h (1 Bft) 0 min 4,2 km/h (1 Bft)
25.07.2010 13:58 24,9 C 22,0 C 1,4 UV-I 1,9 C 46 % 55 % 54 % 1019,4 hPa 0,0 l/m 2,4 km/h (1 Bft) 0 min 3,9 km/h (1 Bft)
25.07.2010 14:00 24,8 C 21,8 C 1,4 UV-I 1,7 C 46 % 56 % 49 % 1019,4 hPa 0,0 l/m 2,4 km/h (1 Bft) 0 min 4,5 km/h (1 Bft)
25.07.2010 14:02 24,9 C 21,9 C 1,1 UV-I 1,1 C 46 % 56 % 31 % 1019,4 hPa 0,0 l/m 3,2 km/h (1 Bft) 0 min 13,2 km/h (3 Bft)
25.07.2010 14:04 24,9 C 21,7 C 1,1 UV-I 0,9 C 46 % 57 % 26 % 1019,4 hPa 0,0 l/m 3,6 km/h (1 Bft) 0 min 13,2 km/h (3 Bft)
25.07.2010 14:06 24,9 C 21,6 C 1,2 UV-I 0,8 C 46 % 57 % 23 % 1019,4 hPa 0,0 l/m 3,6 km/h (1 Bft) 0 min 6,1 km/h (2 Bft)
25.07.2010 14:08 24,8 C 21,6 C 1,2 UV-I 0,6 C 46 % 58 % 17 % 1018,8 hPa 0,0 l/m 4,8 km/h (1 Bft) 0 min 6,1 km/h (2 Bft)
25.07.2010 14:10 24,8 C 21,5 C 1,2 UV-I 0,5 C 46 % 58 % 14 % 1018,8 hPa 0,0 l/m 4,8 km/h (1 Bft) 0 min 6,1 km/h (2 Bft)
25.07.2010 14:12 24,8 C 21,4 C 1,1 UV-I 0,4 C 46 % 58 % 11 % 1018,8 hPa 0,0 l/m 4,4 km/h (1 Bft) 0 min 3,2 km/h (1 Bft)
25.07.2010 14:14 24,8 C 21,5 C 1,1 UV-I 0,2 C 46 % 58 % 6 % 1018,8 hPa 0,0 l/m 4,4 km/h (1 Bft) 0 min 6,8 km/h (2 Bft)
25.07.2010 14:16 24,8 C 21,4 C 1,1 UV-I 0,1 C 46 % 59 % 3 % 1018,8 hPa 0,0 l/m 4,4 km/h (1 Bft) 0 min 12,6 km/h (3 Bft)
25.07.2010 14:18 24,8 C 21,3 C 1,1 UV-I 0,1 C 46 % 59 % 3 % 1018,8 hPa 0,0 l/m 4,4 km/h (1 Bft) 0 min 12,6 km/h (3 Bft)
25.07.2010 14:20 24,8 C 21,3 C 1,1 UV-I 0,0 C 46 % 59 % 0 % 1018,8 hPa 0,0 l/m 4,0 km/h (1 Bft) 0 min 5,1 km/h (1 Bft)
25.07.2010 14:22 24,8 C 21,2 C 1,1 UV-I 0,0 C 46 % 59 % 0 % 1018,8 hPa 0,0 l/m 4,4 km/h (1 Bft) 0 min 5,1 km/h (1 Bft)
25.07.2010 14:24 24,8 C 21,2 C 1,1 UV-I 0,0 C 46 % 59 % 0 % 1018,8 hPa 0,0 l/m 4,4 km/h (1 Bft) 0 min 4,5 km/h (1 Bft)
25.07.2010 14:26 24,8 C 21,2 C 1,0 UV-I 0,0 C 46 % 60 % 0 % 1018,8 hPa 0,0 l/m 4,0 km/h (1 Bft) 0 min 3,5 km/h (1 Bft)
25.07.2010 14:28 24,8 C 21,3 C 1,0 UV-I 0,0 C 46 % 60 % 0 % 1018,6 hPa 0,0 l/m 4,4 km/h (1 Bft) 0 min 12,2 km/h (2 Bft)
25.07.2010 14:30 24,8 C 21,1 C 1,0 UV-I 0,0 C 46 % 60 % 0 % 1018,6 hPa 0,0 l/m 4,4 km/h (1 Bft) 0 min 12,2 km/h (2 Bft)
25.07.2010 14:32 24,8 C 21,1 C 0,8 UV-I 0,0 C 47 % 60 % 0 % 1018,6 hPa 0,0 l/m 3,6 km/h (1 Bft) 0 min 4,5 km/h (1 Bft)
25.07.2010 14:34 24,8 C 21,1 C 0,8 UV-I 0,0 C 47 % 60 % 0 % 1018,6 hPa 0,0 l/m 4,4 km/h (1 Bft) 0 min 9,7 km/h (2 Bft)
25.07.2010 14:36 24,8 C 21,0 C 0,6 UV-I 0,0 C 47 % 60 % 0 % 1018,6 hPa 0,0 l/m 5,2 km/h (1 Bft) 0 min 9,7 km/h (2 Bft)
25.07.2010 14:38 24,7 C 21,0 C 0,6 UV-I 0,0 C 47 % 61 % 0 % 1018,6 hPa 0,0 l/m 5,6 km/h (1 Bft) 0 min 7,4 km/h (2 Bft)
25.07.2010 14:40 24,7 C 20,9 C 0,6 UV-I 0,0 C 47 % 61 % 0 % 1018,6 hPa 0,0 l/m 5,2 km/h (1 Bft) 0 min 20,6 km/h (4 Bft)
25.07.2010 14:42 24,7 C 20,9 C 0,7 UV-I 0,0 C 47 % 62 % 0 % 1018,6 hPa 0,0 l/m 7,2 km/h (2 Bft) 0 min 13,8 km/h (3 Bft)
25.07.2010 14:44 24,7 C 20,8 C 0,7 UV-I 0,0 C 47 % 62 % 0 % 1018,6 hPa 0,0 l/m 8,0 km/h (2 Bft) 0 min 13,8 km/h (3 Bft)
25.07.2010 14:46 24,7 C 20,7 C 1,1 UV-I 0,0 C 47 % 62 % 0 % 1018,6 hPa 0,0 l/m 7,2 km/h (2 Bft) 0 min 8,4 km/h (2 Bft)
25.07.2010 14:48 24,6 C 20,7 C 1,1 UV-I 0,0 C 47 % 63 % 0 % 1018,8 hPa 0,0 l/m 6,4 km/h (2 Bft) 0 min 4,2 km/h (1 Bft)
25.07.2010 14:50 24,6 C 20,7 C 1,1 UV-I 0,0 C 47 % 63 % 0 % 1018,8 hPa 0,0 l/m 6,4 km/h (2 Bft) 0 min 4,2 km/h (1 Bft)
25.07.2010 14:52 24,6 C 20,7 C 1,4 UV-I 0,0 C 47 % 63 % 0 % 1018,8 hPa 0,0 l/m 6,0 km/h (2 Bft) 0 min 7,1 km/h (2 Bft)
25.07.2010 14:54 24,6 C 20,6 C 1,4 UV-I 0,0 C 47 % 64 % 0 % 1018,8 hPa 0,0 l/m 4,4 km/h (1 Bft) 0 min 7,1 km/h (2 Bft)
25.07.2010 14:56 24,6 C 20,6 C 1,6 UV-I 0,0 C 47 % 64 % 0 % 1018,8 hPa 0,0 l/m 4,0 km/h (1 Bft) 0 min 4,8 km/h (1 Bft)
25.07.2010 14:58 24,6 C 20,6 C 1,6 UV-I 0,0 C 48 % 64 % 0 % 1018,8 hPa 0,0 l/m 4,0 km/h (1 Bft) 0 min 5,5 km/h (1 Bft)
25.07.2010 15:00 24,6 C 20,4 C 1,6 UV-I 0,0 C 48 % 64 % 0 % 1018,8 hPa 0,0 l/m 4,8 km/h (1 Bft) 0 min 10,6 km/h (2 Bft)
25.07.2010 15:02 24,5 C 20,4 C 1,7 UV-I 0,0 C 48 % 64 % 0 % 1018,8 hPa 0,0 l/m 4,4 km/h (1 Bft) 0 min 10,6 km/h (2 Bft)
25.07.2010 15:04 24,5 C 20,4 C 1,7 UV-I 0,0 C 48 % 64 % 0 % 1018,8 hPa 0,0 l/m 4,4 km/h (1 Bft) 0 min 6,1 km/h (2 Bft)
25.07.2010 15:06 24,5 C 20,3 C 2,1 UV-I 0,1 C 48 % 64 % 3 % 1018,8 hPa 0,0 l/m 4,0 km/h (1 Bft) 0 min 3,5 km/h (1 Bft)
25.07.2010 15:08 24,5 C 20,3 C 2,1 UV-I 0,1 C 48 % 65 % 3 % 1018,6 hPa 0,0 l/m 4,0 km/h (1 Bft) 0 min 4,5 km/h (1 Bft)
25.07.2010 15:10 24,5 C 20,3 C 2,1 UV-I 0,2 C 48 % 65 % 6 % 1018,6 hPa 0,0 l/m 2,4 km/h (1 Bft) 0 min 4,5 km/h (1 Bft)
25.07.2010 15:12 24,5 C 20,3 C 2,9 UV-I 0,2 C 48 % 65 % 6 % 1018,6 hPa 0,0 l/m 2,0 km/h (1 Bft) 0 min 4,8 km/h (1 Bft)
25.07.2010 15:14 24,5 C 20,3 C 2,9 UV-I 0,4 C 48 % 65 % 11 % 1018,6 hPa 0,0 l/m 2,4 km/h (1 Bft) 0 min 4,8 km/h (1 Bft)
25.07.2010 15:16 24,5 C 20,4 C 2,8 UV-I 0,4 C 48 % 66 % 11 % 1018,6 hPa 0,0 l/m 2,0 km/h (1 Bft) 0 min 4,8 km/h (1 Bft)
25.07.2010 15:18 24,4 C 20,4 C 2,8 UV-I 0,5 C 48 % 65 % 14 % 1018,6 hPa 0,0 l/m 1,6 km/h (1 Bft) 0 min 0,0 km/h (0 Bft)
25.07.2010 15:20 24,4 C 20,3 C 2,8 UV-I 0,7 C 49 % 66 % 20 % 1018,6 hPa 0,0 l/m 1,6 km/h (1 Bft) 0 min 0,0 km/h (0 Bft)
25.07.2010 15:22 24,4 C 20,3 C 1,7 UV-I 0,6 C 49 % 66 % 17 % 1018,6 hPa 0,0 l/m 1,6 km/h (1 Bft) 0 min 0,0 km/h (0 Bft)
25.07.2010 15:24 24,4 C 20,2 C 1,7 UV-I 0,4 C 49 % 68 % 11 % 1018,6 hPa 0,0 l/m 1,6 km/h (1 Bft) 0 min 6,1 km/h (2 Bft)
25.07.2010 15:26 24,4 C 20,0 C 0,6 UV-I 0,0 C 49 % 70 % 0 % 1018,6 hPa 0,0 l/m 2,0 km/h (1 Bft) 0 min 6,1 km/h (2 Bft)
25.07.2010 15:28 24,4 C 19,8 C 0,6 UV-I 0,0 C 50 % 71 % 0 % 1018,7 hPa 1,0 l/m 2,0 km/h (1 Bft) 0 min 5,1 km/h (1 Bft)
25.07.2010 15:30 24,4 C 19,5 C 0,6 UV-I 0,0 C 51 % 73 % 0 % 1018,7 hPa 0,0 l/m 2,8 km/h (1 Bft) 0 min 4,8 km/h (1 Bft)
25.07.2010 15:32 24,4 C 19,2 C 0,5 UV-I 0,0 C 51 % 74 % 0 % 1018,7 hPa 0,1 l/m 3,6 km/h (1 Bft) 0 min 4,8 km/h (1 Bft)
25.07.2010 15:34 24,2 C 18,9 C 0,5 UV-I 0,0 C 52 % 75 % 0 % 1018,7 hPa 0,4 l/m 4,0 km/h (1 Bft) 0 min 4,5 km/h (1 Bft)
25.07.2010 15:36 24,3 C 18,7 C 0,7 UV-I 0,0 C 52 % 76 % 0 % 1018,7 hPa 0,0 l/m 3,6 km/h (1 Bft) 0 min 4,2 km/h (1 Bft)
25.07.2010 15:38 24,3 C 18,6 C 0,7 UV-I 0,0 C 52 % 76 % 0 % 1018,7 hPa 0,1 l/m 3,2 km/h (1 Bft) 0 min 0,0 km/h (0 Bft)
25.07.2010 15:40 24,2 C 18,5 C 0,7 UV-I 0,0 C 53 % 77 % 0 % 1018,7 hPa 0,0 l/m 3,2 km/h (1 Bft) 0 min 4,2 km/h (1 Bft)
25.07.2010 15:42 24,2 C 18,4 C 1,3 UV-I 0,0 C 53 % 77 % 0 % 1018,7 hPa 0,0 l/m 2,0 km/h (1 Bft) 0 min 4,2 km/h (1 Bft)
25.07.2010 15:44 24,2 C 18,3 C 1,3 UV-I 0,0 C 53 % 78 % 0 % 1018,7 hPa 0,0 l/m 1,6 km/h (1 Bft) 0 min 0,0 km/h (0 Bft)
25.07.2010 15:46 24,2 C 18,3 C 1,4 UV-I 0,0 C 54 % 79 % 0 % 1018,7 hPa 0,0 l/m 1,2 km/h (1 Bft) 0 min 0,0 km/h (0 Bft)
25.07.2010 15:48 24,2 C 18,3 C 1,4 UV-I 0,0 C 54 % 79 % 0 % 1019,1 hPa 0,0 l/m 0,8 km/h (0 Bft) 0 min 0,0 km/h (0 Bft)
25.07.2010 15:50 24,1 C 18,1 C 1,4 UV-I 0,0 C 54 % 80 % 0 % 1019,1 hPa 0,0 l/m 1,2 km/h (1 Bft) 0 min 4,2 km/h (1 Bft)
25.07.2010 15:54 24,1 C 18,0 C 1,1 UV-I 0,0 C 54 % 82 % 0 % 1019,1 hPa 0,1 l/m 2,8 km/h (1 Bft) 0 min 7,1 km/h (2 Bft)
25.07.2010 15:56 24,1 C 17,9 C 0,9 UV-I 0,0 C 54 % 82 % 0 % 1019,1 hPa 0,0 l/m 2,8 km/h (1 Bft) 0 min 3,2 km/h (1 Bft)
25.07.2010 15:58 24,0 C 17,8 C 0,9 UV-I 0,0 C 55 % 82 % 0 % 1019,1 hPa 0,0 l/m 2,8 km/h (1 Bft) 0 min 3,2 km/h (1 Bft)
25.07.2010 16:00 24,0 C 17,9 C 0,9 UV-I 0,0 C 55 % 82 % 0 % 1019,1 hPa 0,3 l/m 3,2 km/h (1 Bft) 0 min 3,2 km/h (1 Bft)
25.07.2010 16:02 24,0 C 17,8 C 0,8 UV-I 0,0 C 55 % 83 % 0 % 1019,1 hPa 0,0 l/m 2,4 km/h (1 Bft) 0 min 0,0 km/h (0 Bft)
25.07.2010 16:04 24,0 C 17,7 C 0,8 UV-I 0,0 C 55 % 83 % 0 % 1019,1 hPa 0,0 l/m 1,6 km/h (1 Bft) 0 min 0,0 km/h (0 Bft)
25.07.2010 16:06 24,0 C 17,6 C 0,7 UV-I 0,0 C 55 % 83 % 0 % 1019,1 hPa 0,0 l/m 1,6 km/h (1 Bft) 0 min 0,0 km/h (0 Bft)
25.07.2010 16:08 24,0 C 17,6 C 0,7 UV-I 0,0 C 55 % 83 % 0 % 1019,2 hPa 0,1 l/m 1,6 km/h (1 Bft) 0 min 4,8 km/h (1 Bft)
25.07.2010 16:10 24,0 C 17,6 C 0,7 UV-I 0,0 C 54 % 84 % 0 % 1019,2 hPa 0,0 l/m 1,6 km/h (1 Bft) 0 min 4,8 km/h (1 Bft)
25.07.2010 16:12 24,0 C 17,7 C 0,2 UV-I 0,0 C 54 % 84 % 0 % 1019,2 hPa 0,1 l/m 2,4 km/h (1 Bft) 0 min 10,0 km/h (2 Bft)
25.07.2010 16:14 24,0 C 17,5 C 0,2 UV-I 0,0 C 54 % 84 % 0 % 1019,2 hPa 0,3 l/m 2,8 km/h (1 Bft) 0 min 10,0 km/h (2 Bft)
25.07.2010 16:16 24,0 C 17,5 C 0,2 UV-I 0,0 C 54 % 84 % 0 % 1019,2 hPa 0,0 l/m 3,2 km/h (1 Bft) 0 min 0,0 km/h (0 Bft)
25.07.2010 16:18 23,9 C 17,4 C 0,2 UV-I 0,0 C 54 % 85 % 0 % 1019,2 hPa 0,2 l/m 3,2 km/h (1 Bft) 0 min 3,9 km/h (1 Bft)
25.07.2010 16:20 24,0 C 17,4 C 0,2 UV-I 0,0 C 54 % 85 % 0 % 1019,2 hPa 0,0 l/m 3,2 km/h (1 Bft) 0 min 3,9 km/h (1 Bft)
25.07.2010 16:22 23,9 C 17,3 C 0,9 UV-I 0,0 C 54 % 84 % 0 % 1019,2 hPa 0,0 l/m 2,8 km/h (1 Bft) 0 min 0,0 km/h (0 Bft)
25.07.2010 16:24 23,9 C 17,3 C 0,9 UV-I 0,0 C 54 % 85 % 0 % 1019,2 hPa 0,0 l/m 1,2 km/h (1 Bft) 0 min 0,0 km/h (0 Bft)
25.07.2010 16:26 23,9 C 17,3 C 1,6 UV-I 0,0 C 54 % 85 % 0 % 1019,2 hPa 0,0 l/m 1,2 km/h (1 Bft) 0 min 0,0 km/h (0 Bft)
25.07.2010 16:28 23,9 C 17,3 C 1,6 UV-I 0,0 C 54 % 85 % 0 % 1019,0 hPa 0,0 l/m 1,2 km/h (1 Bft) 0 min 0,0 km/h (0 Bft)
25.07.2010 16:30 23,9 C 17,3 C 1,6 UV-I 0,0 C 55 % 86 % 0 % 1019,0 hPa 0,0 l/m 0,0 km/h (0 Bft) 0 min 0,0 km/h (0 Bft)
25.07.2010 16:32 23,9 C 17,3 C 2,5 UV-I 0,0 C 55 % 86 % 0 % 1019,0 hPa 0,1 l/m 0,8 km/h (0 Bft) 0 min 0,0 km/h (0 Bft)
25.07.2010 16:34 23,9 C 17,4 C 2,5 UV-I 0,0 C 55 % 86 % 0 % 1019,0 hPa 0,0 l/m 0,8 km/h (0 Bft) 0 min 0,0 km/h (0 Bft)
25.07.2010 16:36 23,9 C 17,3 C 2,8 UV-I 0,0 C 55 % 87 % 0 % 1019,0 hPa 0,0 l/m 1,6 km/h (1 Bft) 0 min 6,8 km/h (2 Bft)
25.07.2010 16:38 24,0 C 17,5 C 2,8 UV-I 0,0 C 55 % 87 % 0 % 1019,0 hPa 0,0 l/m 1,6 km/h (1 Bft) 0 min 6,8 km/h (2 Bft)
25.07.2010 16:40 24,0 C 17,5 C 2,8 UV-I 0,0 C 55 % 87 % 0 % 1019,0 hPa 0,0 l/m 2,0 km/h (1 Bft) 0 min 4,5 km/h (1 Bft)
25.07.2010 16:42 24,0 C 17,5 C 2,3 UV-I 0,0 C 55 % 87 % 0 % 1019,0 hPa 0,0 l/m 2,0 km/h (1 Bft) 0 min 5,8 km/h (2 Bft)
25.07.2010 16:44 24,0 C 17,4 C 2,3 UV-I 0,1 C 55 % 87 % 3 % 1019,0 hPa 0,0 l/m 2,0 km/h (1 Bft) 0 min 6,4 km/h (2 Bft)
25.07.2010 16:46 24,0 C 17,5 C 2,3 UV-I 0,0 C 55 % 88 % 0 % 1019,0 hPa 0,0 l/m 2,8 km/h (1 Bft) 0 min 7,1 km/h (2 Bft)
25.07.2010 16:48 23,9 C 17,5 C 2,3 UV-I 0,0 C 55 % 87 % 0 % 1019,1 hPa 0,1 l/m 2,8 km/h (1 Bft) 0 min 7,1 km/h (2 Bft)
25.07.2010 16:50 23,9 C 17,5 C 2,3 UV-I 0,0 C 55 % 87 % 0 % 1019,1 hPa 0,0 l/m 2,8 km/h (1 Bft) 0 min 3,9 km/h (1 Bft)
25.07.2010 16:52 23,9 C 17,5 C 1,9 UV-I 0,0 C 55 % 87 % 0 % 1019,1 hPa 0,0 l/m 2,8 km/h (1 Bft) 0 min 0,0 km/h (0 Bft)
25.07.2010 16:54 23,9 C 17,4 C 1,9 UV-I 0,0 C 55 % 87 % 0 % 1019,1 hPa 0,0 l/m 2,4 km/h (1 Bft) 0 min 0,0 km/h (0 Bft)
25.07.2010 16:56 23,9 C 17,3 C 2,0 UV-I 0,0 C 56 % 87 % 0 % 1019,1 hPa 0,0 l/m 2,4 km/h (1 Bft) 0 min 0,0 km/h (0 Bft)
25.07.2010 16:58 23,9 C 17,5 C 2,0 UV-I 0,0 C 55 % 87 % 0 % 1019,1 hPa 0,0 l/m 2,0 km/h (1 Bft) 0 min 3,2 km/h (1 Bft)
25.07.2010 17:00 23,9 C 17,4 C 2,0 UV-I 0,0 C 55 % 87 % 0 % 1019,1 hPa 0,0 l/m 1,6 km/h (1 Bft) 0 min 3,2 km/h (1 Bft)
25.07.2010 17:02 23,9 C 17,4 C 2,1 UV-I 0,0 C 56 % 87 % 0 % 1019,1 hPa 0,0 l/m 2,4 km/h (1 Bft) 0 min 4,8 km/h (1 Bft)
25.07.2010 17:04 23,9 C 17,3 C 2,1 UV-I 0,0 C 56 % 87 % 0 % 1019,1 hPa 0,0 l/m 2,8 km/h (1 Bft) 0 min 4,8 km/h (1 Bft)
25.07.2010 17:06 23,9 C 17,3 C 1,5 UV-I 0,0 C 56 % 87 % 0 % 1019,1 hPa 0,1 l/m 3,2 km/h (1 Bft) 0 min 3,5 km/h (1 Bft)
25.07.2010 17:08 23,9 C 17,2 C 1,5 UV-I 0,0 C 56 % 87 % 0 % 1018,9 hPa 0,0 l/m 3,2 km/h (1 Bft) 0 min 5,5 km/h (1 Bft)
25.07.2010 17:10 23,8 C 17,2 C 1,5 UV-I 0,0 C 56 % 86 % 0 % 1018,9 hPa 0,0 l/m 4,0 km/h (1 Bft) 0 min 5,5 km/h (1 Bft)
25.07.2010 17:12 23,8 C 17,2 C 1,5 UV-I 0,0 C 56 % 86 % 0 % 1018,9 hPa 0,0 l/m 4,4 km/h (1 Bft) 0 min 4,8 km/h (1 Bft)
25.07.2010 17:14 23,8 C 17,2 C 1,5 UV-I 0,0 C 56 % 87 % 0 % 1018,9 hPa 0,0 l/m 4,0 km/h (1 Bft) 0 min 4,8 km/h (1 Bft)
25.07.2010 17:16 23,8 C 17,1 C 1,3 UV-I 0,0 C 56 % 87 % 0 % 1018,9 hPa 0,0 l/m 3,6 km/h (1 Bft) 0 min 4,2 km/h (1 Bft)
25.07.2010 17:18 23,8 C 17,1 C 1,3 UV-I 0,0 C 56 % 87 % 0 % 1018,9 hPa 0,1 l/m 4,0 km/h (1 Bft) 0 min 4,5 km/h (1 Bft)
25.07.2010 17:20 23,8 C 17,1 C 1,3 UV-I 0,0 C 56 % 87 % 0 % 1018,9 hPa 0,0 l/m 3,2 km/h (1 Bft) 0 min 4,5 km/h (1 Bft)
25.07.2010 17:22 23,8 C 17,0 C 1,3 UV-I 0,0 C 56 % 87 % 0 % 1018,9 hPa 0,0 l/m 2,0 km/h (1 Bft) 0 min 0,0 km/h (0 Bft)
25.07.2010 17:24 23,8 C 17,0 C 1,3 UV-I 0,0 C 56 % 87 % 0 % 1018,9 hPa 0,0 l/m 1,6 km/h (1 Bft) 0 min 5,1 km/h (1 Bft)
25.07.2010 17:26 23,8 C 17,0 C 1,3 UV-I 0,0 C 56 % 87 % 0 % 1018,9 hPa 0,0 l/m 1,6 km/h (1 Bft) 0 min 5,1 km/h (1 Bft)
25.07.2010 17:28 23,8 C 17,1 C 1,3 UV-I 0,0 C 56 % 87 % 0 % 1018,9 hPa 0,0 l/m 1,6 km/h (1 Bft) 0 min 3,5 km/h (1 Bft)
25.07.2010 17:30 23,8 C 17,1 C 1,3 UV-I 0,0 C 56 % 88 % 0 % 1018,9 hPa 0,1 l/m 0,8 km/h (0 Bft) 0 min 0,0 km/h (0 Bft)
25.07.2010 17:32 23,8 C 17,0 C 1,4 UV-I 0,0 C 56 % 87 % 0 % 1018,9 hPa 0,0 l/m 1,2 km/h (1 Bft) 0 min 0,0 km/h (0 Bft)
25.07.2010 17:34 23,8 C 17,1 C 1,4 UV-I 0,0 C 56 % 88 % 0 % 1018,9 hPa 0,0 l/m 1,2 km/h (1 Bft) 0 min 4,2 km/h (1 Bft)
25.07.2010 17:36 23,8 C 17,1 C 1,4 UV-I 0,0 C 56 % 88 % 0 % 1018,9 hPa 0,0 l/m 0,8 km/h (0 Bft) 0 min 4,2 km/h (1 Bft)
25.07.2010 17:38 23,8 C 17,1 C 1,4 UV-I 0,0 C 56 % 88 % 0 % 1018,9 hPa 0,0 l/m 0,4 km/h (0 Bft) 0 min 0,0 km/h (0 Bft)
25.07.2010 17:40 23,8 C 17,1 C 1,4 UV-I 0,0 C 56 % 88 % 0 % 1018,9 hPa 0,0 l/m 0,4 km/h (0 Bft) 0 min 0,0 km/h (0 Bft)
25.07.2010 17:42 23,8 C 17,1 C 1,4 UV-I 0,0 C 56 % 88 % 0 % 1018,9 hPa 0,1 l/m 0,4 km/h (0 Bft) 0 min 3,9 km/h (1 Bft)
25.07.2010 17:44 23,8 C 17,1 C 1,4 UV-I 0,0 C 56 % 88 % 0 % 1018,9 hPa 0,0 l/m 0,8 km/h (0 Bft) 0 min 3,9 km/h (1 Bft)
25.07.2010 17:46 23,8 C 17,1 C 0,9 UV-I 0,0 C 56 % 88 % 0 % 1018,9 hPa 0,0 l/m 0,4 km/h (0 Bft) 0 min 0,0 km/h (0 Bft)
25.07.2010 17:48 23,8 C 17,1 C 0,9 UV-I 0,0 C 57 % 88 % 0 % 1018,5 hPa 0,0 l/m 0,8 km/h (0 Bft) 0 min 0,0 km/h (0 Bft)
25.07.2010 17:50 23,8 C 17,1 C 0,9 UV-I 0,0 C 57 % 88 % 0 % 1018,5 hPa 0,0 l/m 1,2 km/h (1 Bft) 0 min 6,1 km/h (2 Bft)
25.07.2010 17:52 23,8 C 17,1 C 1,1 UV-I 0,0 C 57 % 88 % 0 % 1018,5 hPa 0,1 l/m 1,2 km/h (1 Bft) 0 min 6,1 km/h (2 Bft)
25.07.2010 17:54 23,8 C 17,1 C 1,1 UV-I 0,0 C 57 % 88 % 0 % 1018,5 hPa 0,0 l/m 1,2 km/h (1 Bft) 0 min 0,0 km/h (0 Bft)
25.07.2010 17:56 23,8 C 17,1 C 1,6 UV-I 0,0 C 57 % 88 % 0 % 1018,5 hPa 0,1 l/m 1,6 km/h (1 Bft) 0 min 7,1 km/h (2 Bft)
25.07.2010 17:58 23,8 C 17,0 C 1,6 UV-I 0,0 C 57 % 88 % 0 % 1018,5 hPa 0,0 l/m 1,6 km/h (1 Bft) 0 min 7,1 km/h (2 Bft)
25.07.2010 18:00 23,8 C 16,9 C 1,6 UV-I 0,0 C 57 % 88 % 0 % 1018,5 hPa 0,0 l/m 1,6 km/h (1 Bft) 0 min 3,2 km/h (1 Bft)
25.07.2010 18:02 23,8 C 16,9 C 1,5 UV-I 0,0 C 57 % 88 % 0 % 1018,5 hPa 0,0 l/m 1,6 km/h (1 Bft) 0 min 3,5 km/h (1 Bft)
25.07.2010 18:04 23,7 C 16,9 C 1,5 UV-I 0,0 C 57 % 88 % 0 % 1018,5 hPa 0,1 l/m 2,0 km/h (1 Bft) 0 min 3,5 km/h (1 Bft)
25.07.2010 18:06 23,8 C 16,9 C 1,6 UV-I 0,0 C 57 % 88 % 0 % 1018,5 hPa 0,0 l/m 2,0 km/h (1 Bft) 0 min 0,0 km/h (0 Bft)
25.07.2010 18:08 23,8 C 16,9 C 1,6 UV-I 0,0 C 57 % 88 % 0 % 1018,8 hPa 0,0 l/m 1,2 km/h (1 Bft) 0 min 0,0 km/h (0 Bft)
25.07.2010 18:10 23,8 C 16,9 C 1,6 UV-I 0,0 C 57 % 89 % 0 % 1018,8 hPa 0,0 l/m 1,2 km/h (1 Bft) 0 min 0,0 km/h (0 Bft)
25.07.2010 18:12 23,7 C 16,9 C 1,6 UV-I 0,0 C 57 % 89 % 0 % 1018,8 hPa 0,0 l/m 1,2 km/h (1 Bft) 0 min 0,0 km/h (0 Bft)
25.07.2010 18:14 23,8 C 16,9 C 1,6 UV-I 0,0 C 57 % 89 % 0 % 1018,8 hPa 0,0 l/m 0,8 km/h (0 Bft) 0 min 0,0 km/h (0 Bft)
25.07.2010 18:16 23,8 C 16,9 C 1,1 UV-I 0,0 C 57 % 89 % 0 % 1018,8 hPa 0,0 l/m 0,4 km/h (0 Bft) 0 min 0,0 km/h (0 Bft)
25.07.2010 18:18 23,8 C 17,0 C 1,1 UV-I 0,0 C 57 % 89 % 0 % 1018,8 hPa 0,0 l/m 0,4 km/h (0 Bft) 0 min 0,0 km/h (0 Bft)
25.07.2010 18:20 23,7 C 16,9 C 1,1 UV-I 0,0 C 57 % 89 % 0 % 1018,8 hPa 0,0 l/m 0,0 km/h (0 Bft) 0 min 0,0 km/h (0 Bft)
25.07.2010 18:22 23,7 C 16,9 C 0,9 UV-I 0,0 C 57 % 89 % 0 % 1018,8 hPa 0,1 l/m 0,4 km/h (0 Bft) 0 min 0,0 km/h (0 Bft)
25.07.2010 18:24 23,7 C 16,8 C 0,9 UV-I 0,0 C 57 % 89 % 0 % 1018,8 hPa 0,0 l/m 0,8 km/h (0 Bft) 0 min 6,8 km/h (2 Bft)
25.07.2010 18:26 23,7 C 16,9 C 0,9 UV-I 0,0 C 57 % 89 % 0 % 1018,8 hPa 0,0 l/m 1,2 km/h (1 Bft) 0 min 6,8 km/h (2 Bft)
25.07.2010 18:28 23,7 C 16,7 C 0,9 UV-I 0,0 C 57 % 89 % 0 % 1018,8 hPa 0,0 l/m 1,2 km/h (1 Bft) 0 min 3,9 km/h (1 Bft)
25.07.2010 18:30 23,7 C 16,7 C 0,9 UV-I 0,0 C 57 % 89 % 0 % 1018,8 hPa 0,0 l/m 1,2 km/h (1 Bft) 0 min 0,0 km/h (0 Bft)
25.07.2010 18:32 23,7 C 16,6 C 1,1 UV-I 0,0 C 57 % 89 % 0 % 1018,8 hPa 0,1 l/m 0,8 km/h (0 Bft) 0 min 3,9 km/h (1 Bft)
25.07.2010 18:34 23,7 C 16,7 C 1,1 UV-I 0,0 C 57 % 89 % 0 % 1018,8 hPa 0,0 l/m 1,2 km/h (1 Bft) 0 min 5,5 km/h (1 Bft)
25.07.2010 18:36 23,7 C 16,6 C 1,1 UV-I 0,0 C 57 % 89 % 0 % 1018,8 hPa 0,0 l/m 0,8 km/h (0 Bft) 0 min 5,5 km/h (1 Bft)
25.07.2010 18:38 23,7 C 16,5 C 1,1 UV-I 0,0 C 57 % 89 % 0 % 1018,8 hPa 0,0 l/m 1,2 km/h (1 Bft) 0 min 3,2 km/h (1 Bft)
25.07.2010 18:40 23,7 C 16,5 C 1,1 UV-I 0,0 C 57 % 89 % 0 % 1018,8 hPa 0,0 l/m 1,2 km/h (1 Bft) 0 min 0,0 km/h (0 Bft)
25.07.2010 18:42 23,7 C 16,5 C 0,7 UV-I 0,0 C 57 % 89 % 0 % 1018,8 hPa 0,0 l/m 1,2 km/h (1 Bft) 0 min 0,0 km/h (0 Bft)
25.07.2010 18:46 23,7 C 16,5 C 0,6 UV-I 0,0 C 57 % 89 % 0 % 1018,8 hPa 0,1 l/m 0,8 km/h (0 Bft) 0 min 0,0 km/h (0 Bft)
25.07.2010 18:48 23,7 C 16,5 C 0,6 UV-I 0,0 C 58 % 89 % 0 % 1018,3 hPa 0,0 l/m 0,4 km/h (0 Bft) 0 min 3,5 km/h (1 Bft)
25.07.2010 18:50 23,7 C 16,5 C 0,6 UV-I 0,0 C 58 % 89 % 0 % 1018,3 hPa 0,0 l/m 0,8 km/h (0 Bft) 0 min 3,5 km/h (1 Bft)
25.07.2010 18:52 23,7 C 16,4 C 0,3 UV-I 0,0 C 58 % 89 % 0 % 1018,3 hPa 0,0 l/m 0,8 km/h (0 Bft) 0 min 0,0 km/h (0 Bft)
25.07.2010 18:54 23,7 C 16,4 C 0,3 UV-I 0,0 C 58 % 89 % 0 % 1018,3 hPa 0,0 l/m 0,8 km/h (0 Bft) 0 min 0,0 km/h (0 Bft)
25.07.2010 18:56 23,6 C 16,3 C 0,4 UV-I 0,0 C 58 % 89 % 0 % 1018,3 hPa 0,1 l/m 0,8 km/h (0 Bft) 0 min 0,0 km/h (0 Bft)
25.07.2010 18:58 23,6 C 16,3 C 0,4 UV-I 0,0 C 58 % 90 % 0 % 1018,3 hPa 0,0 l/m 0,8 km/h (0 Bft) 0 min 0,0 km/h (0 Bft)
25.07.2010 19:00 23,6 C 16,3 C 0,4 UV-I 0,0 C 58 % 90 % 0 % 1018,3 hPa 0,0 l/m 0,4 km/h (0 Bft) 0 min 0,0 km/h (0 Bft)
25.07.2010 19:02 23,6 C 16,3 C 0,2 UV-I 0,0 C 58 % 90 % 0 % 1018,3 hPa 0,0 l/m 0,4 km/h (0 Bft) 0 min 0,0 km/h (0 Bft)
25.07.2010 19:04 23,6 C 16,3 C 0,2 UV-I 0,0 C 58 % 90 % 0 % 1018,3 hPa 0,0 l/m 0,4 km/h (0 Bft) 0 min 0,0 km/h (0 Bft)
25.07.2010 19:06 23,6 C 16,4 C 0,1 UV-I 0,0 C 58 % 90 % 0 % 1018,3 hPa 0,0 l/m 0,0 km/h (0 Bft) 0 min 0,0 km/h (0 Bft)
25.07.2010 19:08 23,6 C 16,3 C 0,1 UV-I 0,0 C 58 % 90 % 0 % 1018,3 hPa 0,0 l/m 0,0 km/h (0 Bft) 0 min 0,0 km/h (0 Bft)
25.07.2010 19:10 23,6 C 16,3 C 0,1 UV-I 0,0 C 58 % 90 % 0 % 1018,3 hPa 0,0 l/m 0,0 km/h (0 Bft) 0 min 0,0 km/h (0 Bft)
25.07.2010 19:12 23,6 C 16,2 C 0,0 UV-I 0,0 C 58 % 90 % 0 % 1018,3 hPa 0,0 l/m 0,0 km/h (0 Bft) 0 min 0,0 km/h (0 Bft)
25.07.2010 19:14 23,6 C 16,2 C 0,0 UV-I 0,0 C 58 % 90 % 0 % 1018,3 hPa 0,0 l/m 0,0 km/h (0 Bft) 0 min 0,0 km/h (0 Bft)
25.07.2010 19:16 23,6 C 16,3 C 0,0 UV-I 0,0 C 58 % 90 % 0 % 1018,3 hPa 0,0 l/m 0,0 km/h (0 Bft) 0 min 0,0 km/h (0 Bft)
25.07.2010 19:18 23,6 C 16,3 C 0,0 UV-I 0,0 C 58 % 90 % 0 % 1018,3 hPa 0,0 l/m 0,0 km/h (0 Bft) 0 min 0,0 km/h (0 Bft)
25.07.2010 19:20 23,6 C 16,3 C 0,0 UV-I 0,0 C 58 % 91 % 0 % 1018,3 hPa 0,0 l/m 0,0 km/h (0 Bft) 0 min 0,0 km/h (0 Bft)
25.07.2010 19:22 23,6 C 16,3 C 0,0 UV-I 0,0 C 58 % 91 % 0 % 1018,3 hPa 0,0 l/m 0,0 km/h (0 Bft) 0 min 0,0 km/h (0 Bft)
25.07.2010 19:24 23,6 C 16,3 C 0,0 UV-I 0,0 C 58 % 91 % 0 % 1018,3 hPa 0,0 l/m 0,0 km/h (0 Bft) 0 min 0,0 km/h (0 Bft)
25.07.2010 19:26 23,5 C 16,3 C 0,0 UV-I 0,0 C 59 % 91 % 0 % 1018,3 hPa 0,1 l/m 0,4 km/h (0 Bft) 0 min 0,0 km/h (0 Bft)
25.07.2010 19:28 23,6 C 16,2 C 0,0 UV-I 0,0 C 59 % 91 % 0 % 1018,3 hPa 0,0 l/m 0,4 km/h (0 Bft) 0 min 0,0 km/h (0 Bft)
25.07.2010 19:30 23,6 C 16,3 C 0,0 UV-I 0,0 C 59 % 91 % 0 % 1018,3 hPa 0,1 l/m 0,4 km/h (0 Bft) 0 min 0,0 km/h (0 Bft)
25.07.2010 19:32 23,5 C 16,2 C 0,0 UV-I 0,0 C 59 % 91 % 0 % 1018,3 hPa 0,0 l/m 0,4 km/h (0 Bft) 0 min 0,0 km/h (0 Bft)
25.07.2010 19:34 23,5 C 16,3 C 0,0 UV-I 0,0 C 59 % 91 % 0 % 1018,3 hPa 0,0 l/m 0,4 km/h (0 Bft) 0 min 0,0 km/h (0 Bft)
25.07.2010 19:36 23,5 C 16,2 C 0,0 UV-I 0,0 C 59 % 91 % 0 % 1018,3 hPa 0,0 l/m 0,4 km/h (0 Bft) 0 min 0,0 km/h (0 Bft)
25.07.2010 19:38 23,5 C 16,3 C 0,0 UV-I 0,0 C 59 % 91 % 0 % 1018,3 hPa 0,0 l/m 0,4 km/h (0 Bft) 0 min 0,0 km/h (0 Bft)
25.07.2010 19:40 23,5 C 16,3 C 0,0 UV-I 0,0 C 59 % 91 % 0 % 1018,3 hPa 0,0 l/m 0,4 km/h (0 Bft) 0 min 0,0 km/h (0 Bft)
25.07.2010 19:42 23,4 C 16,3 C 0,0 UV-I 0,0 C 59 % 91 % 0 % 1018,3 hPa 0,0 l/m 0,0 km/h (0 Bft) 0 min 0,0 km/h (0 Bft)
25.07.2010 19:44 23,5 C 16,3 C 0,0 UV-I 0,0 C 59 % 91 % 0 % 1018,3 hPa 0,1 l/m 0,0 km/h (0 Bft) 0 min 0,0 km/h (0 Bft)
25.07.2010 19:46 23,4 C 16,2 C 0,1 UV-I 0,0 C 59 % 91 % 0 % 1018,3 hPa 0,0 l/m 0,0 km/h (0 Bft) 0 min 0,0 km/h (0 Bft)
25.07.2010 19:48 23,4 C 16,2 C 0,1 UV-I 0,0 C 59 % 91 % 0 % 1018,3 hPa 0,0 l/m 0,4 km/h (0 Bft) 0 min 0,0 km/h (0 Bft)
25.07.2010 19:50 23,4 C 16,1 C 0,1 UV-I 0,0 C 59 % 91 % 0 % 1018,3 hPa 0,0 l/m 0,4 km/h (0 Bft) 0 min 0,0 km/h (0 Bft)
25.07.2010 19:52 23,4 C 16,2 C 0,2 UV-I 0,0 C 59 % 91 % 0 % 1018,3 hPa 0,1 l/m 0,4 km/h (0 Bft) 0 min 0,0 km/h (0 Bft)
25.07.2010 19:54 23,4 C 16,1 C 0,2 UV-I 0,0 C 59 % 91 % 0 % 1018,3 hPa 0,0 l/m 0,4 km/h (0 Bft) 0 min 0,0 km/h (0 Bft)
25.07.2010 19:56 23,4 C 16,1 C 0,2 UV-I 0,0 C 59 % 91 % 0 % 1018,3 hPa 0,0 l/m 0,4 km/h (0 Bft) 0 min 0,0 km/h (0 Bft)
25.07.2010 19:58 23,4 C 16,1 C 0,2 UV-I 0,0 C 59 % 91 % 0 % 1018,3 hPa 0,0 l/m 0,0 km/h (0 Bft) 0 min 0,0 km/h (0 Bft)
25.07.2010 20:00 23,4 C 16,1 C 0,2 UV-I 0,0 C 59 % 91 % 0 % 1018,3 hPa 0,0 l/m 0,0 km/h (0 Bft) 0 min 0,0 km/h (0 Bft)
25.07.2010 20:02 23,4 C 16,1 C 0,1 UV-I 0,0 C 59 % 91 % 0 % 1018,3 hPa 0,0 l/m 0,0 km/h (0 Bft) 0 min 0,0 km/h (0 Bft)
25.07.2010 20:04 23,4 C 16,1 C 0,1 UV-I 0,0 C 59 % 91 % 0 % 1018,3 hPa 0,0 l/m 0,0 km/h (0 Bft) 0 min 0,0 km/h (0 Bft)
25.07.2010 20:06 23,2 C 16,1 C 0,0 UV-I 0,0 C 59 % 91 % 0 % 1018,3 hPa 0,0 l/m 0,0 km/h (0 Bft) 0 min 0,0 km/h (0 Bft)
25.07.2010 20:08 23,4 C 16,1 C 0,0 UV-I 0,0 C 59 % 91 % 0 % 1018,1 hPa 0,0 l/m 0,0 km/h (0 Bft) 0 min 0,0 km/h (0 Bft)
25.07.2010 20:10 23,2 C 16,1 C 0,0 UV-I 0,0 C 59 % 91 % 0 % 1018,1 hPa 0,0 l/m 0,0 km/h (0 Bft) 0 min 0,0 km/h (0 Bft)
25.07.2010 20:12 23,2 C 16,0 C 0,0 UV-I 0,0 C 59 % 91 % 0 % 1018,1 hPa 0,1 l/m 0,0 km/h (0 Bft) 0 min 0,0 km/h (0 Bft)
25.07.2010 20:14 23,4 C 16,1 C 0,0 UV-I 0,0 C 59 % 91 % 0 % 1018,1 hPa 0,0 l/m 0,0 km/h (0 Bft) 0 min 0,0 km/h (0 Bft)
25.07.2010 20:16 23,2 C 16,0 C 0,0 UV-I 0,0 C 59 % 91 % 0 % 1018,1 hPa 0,0 l/m 0,0 km/h (0 Bft) 0 min 0,0 km/h (0 Bft)
25.07.2010 20:20 23,2 C 16,0 C 0,0 UV-I 0,0 C 59 % 91 % 0 % 1018,1 hPa 0,0 l/m 0,0 km/h (0 Bft) 0 min 0,0 km/h (0 Bft)
25.07.2010 20:22 23,2 C 16,0 C 0,0 UV-I 0,0 C 60 % 91 % 0 % 1018,1 hPa 0,0 l/m 0,0 km/h (0 Bft) 0 min 0,0 km/h (0 Bft)
25.07.2010 20:24 23,3 C 16,0 C 0,0 UV-I 0,0 C 59 % 91 % 0 % 1018,1 hPa 0,0 l/m 0,0 km/h (0 Bft) 0 min 0,0 km/h (0 Bft)
25.07.2010 20:26 23,2 C 16,1 C 0,0 UV-I 0,0 C 60 % 91 % 0 % 1018,1 hPa 0,0 l/m 0,0 km/h (0 Bft) 0 min 0,0 km/h (0 Bft)
25.07.2010 20:28 23,2 C 16,0 C 0,0 UV-I 0,0 C 60 % 91 % 0 % 1018,1 hPa 0,0 l/m 0,0 km/h (0 Bft) 0 min 0,0 km/h (0 Bft)
25.07.2010 20:34 23,2 C 16,0 C 0,0 UV-I 0,0 C 60 % 91 % 0 % 1018,1 hPa 0,0 l/m 0,4 km/h (0 Bft) 0 min 4,2 km/h (1 Bft)
25.07.2010 20:36 23,3 C 16,0 C 0,0 UV-I 0,0 C 60 % 91 % 0 % 1018,1 hPa 0,0 l/m 0,4 km/h (0 Bft) 0 min 0,0 km/h (0 Bft)
25.07.2010 20:38 23,3 C 16,0 C 0,0 UV-I 0,0 C 60 % 91 % 0 % 1018,1 hPa 0,0 l/m 0,4 km/h (0 Bft) 0 min 0,0 km/h (0 Bft)
25.07.2010 20:40 23,3 C 16,1 C 0,0 UV-I 0,0 C 60 % 92 % 0 % 1018,1 hPa 0,1 l/m 0,4 km/h (0 Bft) 0 min 0,0 km/h (0 Bft)
25.07.2010 20:42 23,3 C 16,1 C 0,0 UV-I 0,0 C 60 % 91 % 0 % 1018,1 hPa 0,0 l/m 0,4 km/h (0 Bft) 0 min 0,0 km/h (0 Bft)
25.07.2010 20:44 23,2 C 16,0 C 0,0 UV-I 0,0 C 60 % 92 % 0 % 1018,1 hPa 0,0 l/m 0,0 km/h (0 Bft) 0 min 0,0 km/h (0 Bft)
25.07.2010 20:46 23,2 C 16,0 C 0,0 UV-I 0,0 C 60 % 92 % 0 % 1018,1 hPa 0,1 l/m 0,0 km/h (0 Bft) 0 min 0,0 km/h (0 Bft)
25.07.2010 20:48 23,2 C 15,9 C 0,0 UV-I 0,0 C 60 % 92 % 0 % 1018,2 hPa 0,0 l/m 0,0 km/h (0 Bft) 0 min 0,0 km/h (0 Bft)
25.07.2010 20:50 23,2 C 16,0 C 0,0 UV-I 0,0 C 60 % 92 % 0 % 1018,2 hPa 0,0 l/m 0,0 km/h (0 Bft) 0 min 0,0 km/h (0 Bft)
25.07.2010 20:52 23,2 C 16,0 C 0,0 UV-I 0,0 C 60 % 92 % 0 % 1018,2 hPa 0,0 l/m 0,0 km/h (0 Bft) 0 min 0,0 km/h (0 Bft)
25.07.2010 20:54 23,2 C 16,0 C 0,0 UV-I 0,0 C 60 % 92 % 0 % 1018,2 hPa 0,0 l/m 0,0 km/h (0 Bft) 0 min 0,0 km/h (0 Bft)
25.07.2010 20:56 23,2 C 16,1 C 0,0 UV-I 0,0 C 60 % 92 % 0 % 1018,2 hPa 0,0 l/m 0,0 km/h (0 Bft) 0 min 0,0 km/h (0 Bft)
25.07.2010 20:58 23,2 C 16,0 C 0,0 UV-I 0,0 C 60 % 92 % 0 % 1018,2 hPa 0,0 l/m 0,0 km/h (0 Bft) 0 min 0,0 km/h (0 Bft)
25.07.2010 21:00 23,2 C 16,0 C 0,0 UV-I 0,0 C 60 % 92 % 0 % 1018,2 hPa 0,0 l/m 0,0 km/h (0 Bft) 0 min 0,0 km/h (0 Bft)
25.07.2010 21:04 23,2 C 16,1 C 0,0 UV-I 0,0 C 60 % 92 % 0 % 1018,2 hPa 0,0 l/m 0,0 km/h (0 Bft) 0 min 0,0 km/h (0 Bft)
25.07.2010 21:06 23,2 C 16,0 C 0,0 UV-I 0,0 C 60 % 92 % 0 % 1018,2 hPa 0,0 l/m 0,0 km/h (0 Bft) 0 min 0,0 km/h (0 Bft)
25.07.2010 21:08 23,2 C 16,0 C 0,0 UV-I 0,0 C 60 % 92 % 0 % 1018,3 hPa 0,1 l/m 0,0 km/h (0 Bft) 0 min 0,0 km/h (0 Bft)
25.07.2010 21:10 23,2 C 16,0 C 0,0 UV-I 0,0 C 60 % 92 % 0 % 1018,3 hPa 0,1 l/m 0,4 km/h (0 Bft) 0 min 0,0 km/h (0 Bft)
25.07.2010 21:12 23,2 C 16,0 C 0,0 UV-I 0,0 C 60 % 92 % 0 % 1018,3 hPa 0,0 l/m 0,0 km/h (0 Bft) 0 min 0,0 km/h (0 Bft)
25.07.2010 21:14 23,2 C 16,0 C 0,0 UV-I 0,0 C 60 % 92 % 0 % 1018,3 hPa 0,0 l/m 0,0 km/h (0 Bft) 0 min 0,0 km/h (0 Bft)
25.07.2010 21:16 23,2 C 15,9 C 0,0 UV-I 0,0 C 60 % 92 % 0 % 1018,3 hPa 0,0 l/m 0,0 km/h (0 Bft) 0 min 0,0 km/h (0 Bft)
25.07.2010 21:18 23,2 C 16,0 C 0,0 UV-I 0,0 C 60 % 92 % 0 % 1018,3 hPa 0,0 l/m 0,0 km/h (0 Bft) 0 min 0,0 km/h (0 Bft)
25.07.2010 21:20 23,2 C 16,0 C 0,0 UV-I 0,0 C 60 % 92 % 0 % 1018,3 hPa 0,1 l/m 0,0 km/h (0 Bft) 0 min 0,0 km/h (0 Bft)
25.07.2010 21:22 23,2 C 16,0 C 0,0 UV-I 0,0 C 60 % 92 % 0 % 1018,3 hPa 0,1 l/m 0,0 km/h (0 Bft) 0 min 0,0 km/h (0 Bft)
25.07.2010 21:24 23,2 C 16,1 C 0,0 UV-I 0,0 C 60 % 92 % 0 % 1018,3 hPa 0,0 l/m 0,0 km/h (0 Bft) 0 min 0,0 km/h (0 Bft)
25.07.2010 21:26 23,2 C 16,1 C 0,0 UV-I 0,0 C 60 % 92 % 0 % 1018,3 hPa 0,0 l/m 0,0 km/h (0 Bft) 0 min 0,0 km/h (0 Bft)
25.07.2010 21:28 23,2 C 16,0 C 0,0 UV-I 0,0 C 60 % 92 % 0 % 1018,2 hPa 0,0 l/m 0,0 km/h (0 Bft) 0 min 0,0 km/h (0 Bft)
25.07.2010 21:30 23,2 C 16,0 C 0,0 UV-I 0,0 C 60 % 92 % 0 % 1018,2 hPa 0,0 l/m 0,0 km/h (0 Bft) 0 min 0,0 km/h (0 Bft)
25.07.2010 21:32 23,2 C 16,1 C 0,0 UV-I 0,0 C 60 % 92 % 0 % 1018,2 hPa 0,0 l/m 0,0 km/h (0 Bft) 0 min 0,0 km/h (0 Bft)
25.07.2010 21:34 23,2 C 16,1 C 0,0 UV-I 0,0 C 60 % 92 % 0 % 1018,2 hPa 0,0 l/m 0,0 km/h (0 Bft) 0 min 0,0 km/h (0 Bft)
25.07.2010 21:38 23,2 C 16,1 C 0,0 UV-I 0,0 C 60 % 92 % 0 % 1018,2 hPa 0,0 l/m 0,0 km/h (0 Bft) 0 min 0,0 km/h (0 Bft)
25.07.2010 21:40 23,2 C 16,1 C 0,0 UV-I 0,0 C 60 % 93 % 0 % 1018,2 hPa 0,0 l/m 0,0 km/h (0 Bft) 0 min 0,0 km/h (0 Bft)
25.07.2010 21:42 23,2 C 16,0 C 0,0 UV-I 0,0 C 60 % 93 % 0 % 1018,2 hPa 0,0 l/m 0,0 km/h (0 Bft) 0 min 0,0 km/h (0 Bft)
25.07.2010 21:44 23,2 C 16,0 C 0,0 UV-I 0,0 C 60 % 93 % 0 % 1018,2 hPa 0,0 l/m 0,0 km/h (0 Bft) 0 min 0,0 km/h (0 Bft)
25.07.2010 21:46 23,2 C 16,0 C 0,0 UV-I 0,0 C 60 % 93 % 0 % 1018,2 hPa 0,0 l/m 0,0 km/h (0 Bft) 0 min 0,0 km/h (0 Bft)
25.07.2010 21:48 23,2 C 16,0 C 0,0 UV-I 0,0 C 60 % 93 % 0 % 1018,0 hPa 0,0 l/m 0,0 km/h (0 Bft) 0 min 0,0 km/h (0 Bft)
25.07.2010 21:50 23,2 C 16,0 C 0,0 UV-I 0,0 C 60 % 93 % 0 % 1018,0 hPa 0,0 l/m 0,0 km/h (0 Bft) 0 min 0,0 km/h (0 Bft)
25.07.2010 21:52 23,2 C 16,0 C 0,0 UV-I 0,0 C 60 % 93 % 0 % 1018,0 hPa 0,0 l/m 0,0 km/h (0 Bft) 0 min 0,0 km/h (0 Bft)
25.07.2010 21:54 23,2 C 16,0 C 0,0 UV-I 0,0 C 60 % 93 % 0 % 1018,0 hPa 0,0 l/m 0,0 km/h (0 Bft) 0 min 0,0 km/h (0 Bft)
25.07.2010 21:56 23,2 C 16,0 C 0,0 UV-I 0,0 C 60 % 93 % 0 % 1018,0 hPa 0,0 l/m 0,0 km/h (0 Bft) 0 min 0,0 km/h (0 Bft)
25.07.2010 21:58 23,2 C 16,0 C 0,0 UV-I 0,0 C 60 % 93 % 0 % 1018,0 hPa 0,0 l/m 0,0 km/h (0 Bft) 0 min 0,0 km/h (0 Bft)
25.07.2010 22:00 23,2 C 16,0 C 0,0 UV-I 0,0 C 60 % 93 % 0 % 1018,0 hPa 0,0 l/m 0,0 km/h (0 Bft) 0 min 0,0 km/h (0 Bft)
25.07.2010 22:02 23,2 C 16,0 C 0,0 UV-I 0,0 C 60 % 93 % 0 % 1018,0 hPa 0,0 l/m 0,0 km/h (0 Bft) 0 min 0,0 km/h (0 Bft)
25.07.2010 22:04 23,2 C 16,0 C 0,0 UV-I 0,0 C 60 % 93 % 0 % 1018,0 hPa 0,0 l/m 0,0 km/h (0 Bft) 0 min 0,0 km/h (0 Bft)
25.07.2010 22:06 23,2 C 16,0 C 0,0 UV-I 0,0 C 60 % 93 % 0 % 1018,0 hPa 0,0 l/m 0,0 km/h (0 Bft) 0 min 0,0 km/h (0 Bft)
25.07.2010 22:08 23,2 C 16,0 C 0,0 UV-I 0,0 C 60 % 93 % 0 % 1018,0 hPa 0,0 l/m 0,0 km/h (0 Bft) 0 min 0,0 km/h (0 Bft)
25.07.2010 22:10 23,2 C 16,0 C 0,0 UV-I 0,0 C 60 % 93 % 0 % 1018,0 hPa 0,0 l/m 0,0 km/h (0 Bft) 0 min 0,0 km/h (0 Bft)
25.07.2010 22:12 23,2 C 16,0 C 0,0 UV-I 0,0 C 61 % 93 % 0 % 1018,0 hPa 0,0 l/m 0,0 km/h (0 Bft) 0 min 0,0 km/h (0 Bft)
25.07.2010 22:14 23,2 C 16,0 C 0,0 UV-I 0,0 C 61 % 93 % 0 % 1018,0 hPa 0,0 l/m 0,0 km/h (0 Bft) 0 min 0,0 km/h (0 Bft)
25.07.2010 22:16 23,2 C 16,0 C 0,0 UV-I 0,0 C 60 % 93 % 0 % 1018,0 hPa 0,0 l/m 0,0 km/h (0 Bft) 0 min 0,0 km/h (0 Bft)
25.07.2010 22:18 23,2 C 16,0 C 0,0 UV-I 0,0 C 60 % 93 % 0 % 1018,0 hPa 0,0 l/m 0,0 km/h (0 Bft) 0 min 0,0 km/h (0 Bft)
25.07.2010 22:22 23,2 C 16,0 C 0,0 UV-I 0,0 C 60 % 93 % 0 % 1018,0 hPa 0,0 l/m 0,0 km/h (0 Bft) 0 min 0,0 km/h (0 Bft)
25.07.2010 22:26 23,2 C 16,0 C 0,0 UV-I 0,0 C 60 % 93 % 0 % 1018,0 hPa 0,0 l/m 0,0 km/h (0 Bft) 0 min 0,0 km/h (0 Bft)
25.07.2010 22:28 23,2 C 16,0 C 0,0 UV-I 0,0 C 61 % 93 % 0 % 1018,1 hPa 0,0 l/m 0,0 km/h (0 Bft) 0 min 0,0 km/h (0 Bft)
25.07.2010 22:30 23,2 C 16,0 C 0,0 UV-I 0,0 C 61 % 93 % 0 % 1018,1 hPa 0,0 l/m 0,0 km/h (0 Bft) 0 min 0,0 km/h (0 Bft)
25.07.2010 22:32 23,2 C 16,1 C 0,0 UV-I 0,0 C 61 % 93 % 0 % 1018,1 hPa 0,0 l/m 0,0 km/h (0 Bft) 0 min 0,0 km/h (0 Bft)
25.07.2010 22:34 23,2 C 16,0 C 0,0 UV-I 0,0 C 61 % 93 % 0 % 1018,1 hPa 0,0 l/m 0,0 km/h (0 Bft) 0 min 0,0 km/h (0 Bft)
25.07.2010 22:36 23,2 C 16,0 C 0,0 UV-I 0,0 C 61 % 93 % 0 % 1018,1 hPa 0,0 l/m 0,0 km/h (0 Bft) 0 min 0,0 km/h (0 Bft)
25.07.2010 22:38 23,2 C 16,0 C 0,0 UV-I 0,0 C 61 % 93 % 0 % 1018,1 hPa 0,0 l/m 0,0 km/h (0 Bft) 0 min 0,0 km/h (0 Bft)
25.07.2010 22:40 23,2 C 16,0 C 0,0 UV-I 0,0 C 61 % 93 % 0 % 1018,1 hPa 0,0 l/m 0,0 km/h (0 Bft) 0 min 0,0 km/h (0 Bft)
25.07.2010 22:42 23,2 C 16,0 C 0,0 UV-I 0,0 C 61 % 93 % 0 % 1018,1 hPa 0,0 l/m 0,0 km/h (0 Bft) 0 min 0,0 km/h (0 Bft)
25.07.2010 22:44 23,2 C 16,1 C 0,0 UV-I 0,0 C 61 % 93 % 0 % 1018,1 hPa 0,0 l/m 0,0 km/h (0 Bft) 0 min 0,0 km/h (0 Bft)
25.07.2010 22:46 23,2 C 16,0 C 0,0 UV-I 0,0 C 61 % 93 % 0 % 1018,1 hPa 0,0 l/m 0,0 km/h (0 Bft) 0 min 0,0 km/h (0 Bft)
25.07.2010 22:48 23,2 C 16,0 C 0,0 UV-I 0,0 C 61 % 93 % 0 % 1018,0 hPa 0,0 l/m 0,0 km/h (0 Bft) 0 min 0,0 km/h (0 Bft)
25.07.2010 22:50 23,2 C 16,0 C 0,0 UV-I 0,0 C 61 % 93 % 0 % 1018,0 hPa 0,0 l/m 0,0 km/h (0 Bft) 0 min 0,0 km/h (0 Bft)
25.07.2010 22:52 23,2 C 16,0 C 0,0 UV-I 0,0 C 61 % 93 % 0 % 1018,0 hPa 0,0 l/m 0,0 km/h (0 Bft) 0 min 0,0 km/h (0 Bft)
25.07.2010 22:54 23,2 C 16,0 C 0,0 UV-I 0,0 C 61 % 93 % 0 % 1018,0 hPa 0,0 l/m 0,0 km/h (0 Bft) 0 min 0,0 km/h (0 Bft)
25.07.2010 22:56 23,2 C 16,0 C 0,0 UV-I 0,0 C 61 % 93 % 0 % 1018,0 hPa 0,0 l/m 0,0 km/h (0 Bft) 0 min 0,0 km/h (0 Bft)
25.07.2010 22:58 23,2 C 16,0 C 0,0 UV-I 0,0 C 61 % 93 % 0 % 1018,0 hPa 0,0 l/m 0,0 km/h (0 Bft) 0 min 0,0 km/h (0 Bft)
25.07.2010 23:00 23,2 C 16,0 C 0,0 UV-I 0,0 C 61 % 93 % 0 % 1018,0 hPa 0,0 l/m 0,0 km/h (0 Bft) 0 min 0,0 km/h (0 Bft)
25.07.2010 23:02 23,2 C 16,0 C 0,0 UV-I 0,0 C 61 % 93 % 0 % 1018,0 hPa 0,0 l/m 0,0 km/h (0 Bft) 0 min 0,0 km/h (0 Bft)
25.07.2010 23:04 23,2 C 16,0 C 0,0 UV-I 0,0 C 61 % 93 % 0 % 1018,0 hPa 0,1 l/m 0,0 km/h (0 Bft) 0 min 0,0 km/h (0 Bft)
25.07.2010 23:06 23,2 C 16,0 C 0,0 UV-I 0,0 C 61 % 93 % 0 % 1018,0 hPa 0,1 l/m 0,0 km/h (0 Bft) 0 min 0,0 km/h (0 Bft)
25.07.2010 23:08 23,2 C 16,0 C 0,0 UV-I 0,0 C 61 % 93 % 0 % 1018,1 hPa 0,0 l/m 0,0 km/h (0 Bft) 0 min 0,0 km/h (0 Bft)
25.07.2010 23:10 23,2 C 16,1 C 0,0 UV-I 0,0 C 61 % 93 % 0 % 1018,1 hPa 0,0 l/m 0,0 km/h (0 Bft) 0 min 0,0 km/h (0 Bft)
25.07.2010 23:12 23,2 C 16,0 C 0,0 UV-I 0,0 C 61 % 93 % 0 % 1018,1 hPa 0,1 l/m 0,0 km/h (0 Bft) 0 min 0,0 km/h (0 Bft)
25.07.2010 23:14 23,2 C 16,0 C 0,0 UV-I 0,0 C 61 % 93 % 0 % 1018,1 hPa 0,0 l/m 0,0 km/h (0 Bft) 0 min 0,0 km/h (0 Bft)
25.07.2010 23:16 23,2 C 16,0 C 0,0 UV-I 0,0 C 61 % 93 % 0 % 1018,1 hPa 0,0 l/m 0,0 km/h (0 Bft) 0 min 0,0 km/h (0 Bft)
25.07.2010 23:18 23,2 C 16,0 C 0,0 UV-I 0,0 C 61 % 93 % 0 % 1018,1 hPa 0,0 l/m 0,0 km/h (0 Bft) 0 min 0,0 km/h (0 Bft)
25.07.2010 23:20 23,2 C 16,0 C 0,0 UV-I 0,0 C 61 % 93 % 0 % 1018,1 hPa 0,0 l/m 0,0 km/h (0 Bft) 0 min 0,0 km/h (0 Bft)
25.07.2010 23:22 23,2 C 16,1 C 0,0 UV-I 0,0 C 61 % 94 % 0 % 1018,1 hPa 0,0 l/m 0,0 km/h (0 Bft) 0 min 0,0 km/h (0 Bft)
25.07.2010 23:24 23,2 C 16,0 C 0,0 UV-I 0,0 C 61 % 93 % 0 % 1018,1 hPa 0,0 l/m 0,0 km/h (0 Bft) 0 min 0,0 km/h (0 Bft)
25.07.2010 23:28 23,2 C 16,0 C 0,0 UV-I 0,0 C 61 % 93 % 0 % 1017,9 hPa 0,0 l/m 0,0 km/h (0 Bft) 0 min 0,0 km/h (0 Bft)
25.07.2010 23:30 23,2 C 16,0 C 0,0 UV-I 0,0 C 61 % 93 % 0 % 1017,9 hPa 0,0 l/m 0,0 km/h (0 Bft) 0 min 0,0 km/h (0 Bft)
25.07.2010 23:32 23,2 C 16,0 C 0,0 UV-I 0,0 C 61 % 93 % 0 % 1017,9 hPa 0,0 l/m 0,0 km/h (0 Bft) 0 min 0,0 km/h (0 Bft)
25.07.2010 23:34 23,2 C 16,0 C 0,0 UV-I 0,0 C 61 % 93 % 0 % 1017,9 hPa 0,0 l/m 0,0 km/h (0 Bft) 0 min 0,0 km/h (0 Bft)
25.07.2010 23:36 23,2 C 16,0 C 0,0 UV-I 0,0 C 61 % 93 % 0 % 1017,9 hPa 0,0 l/m 0,0 km/h (0 Bft) 0 min 0,0 km/h (0 Bft)
25.07.2010 23:38 23,2 C 16,0 C 0,0 UV-I 0,0 C 61 % 93 % 0 % 1017,9 hPa 0,0 l/m 0,0 km/h (0 Bft) 0 min 0,0 km/h (0 Bft)
25.07.2010 23:40 23,2 C 16,0 C 0,0 UV-I 0,0 C 61 % 93 % 0 % 1017,9 hPa 0,0 l/m 0,0 km/h (0 Bft) 0 min 0,0 km/h (0 Bft)
25.07.2010 23:42 23,2 C 16,0 C 0,0 UV-I 0,0 C 61 % 93 % 0 % 1017,9 hPa 0,0 l/m 0,0 km/h (0 Bft) 0 min 0,0 km/h (0 Bft)
25.07.2010 23:44 23,2 C 16,0 C 0,0 UV-I 0,0 C 61 % 93 % 0 % 1017,9 hPa 0,0 l/m 0,4 km/h (0 Bft) 0 min 0,0 km/h (0 Bft)
25.07.2010 23:47 23,2 C 16,0 C 0,0 UV-I 0,0 C 61 % 93 % 0 % 1017,9 hPa 0,0 l/m 0,4 km/h (0 Bft) 0 min 3,9 km/h (1 Bft)
25.07.2010 23:53 23,2 C 16,0 C 0,0 UV-I 0,0 C 61 % 93 % 0 % 1017,9 hPa 0,0 l/m 0,4 km/h (0 Bft) 0 min 0,0 km/h (0 Bft)
25.07.2010 23:56 23,1 C 16,0 C 0,0 UV-I 0,0 C 61 % 93 % 0 % 1017,9 hPa 0,0 l/m 0,8 km/h (0 Bft) 0 min 5,1 km/h (1 Bft)
25.07.2010 23:58 23,1 C 16,0 C 0,0 UV-I 0,0 C 61 % 93 % 0 % 1017,9 hPa 0,0 l/m 0,8 km/h (0 Bft) 0 min 0,0 km/h (0 Bft)
_ Min-Zeit 06:12 04:24 00:00 00:00 00:00 13:16 00:00 23:28 - 00:00 - 00:00
Minimum _ 23,0 C 10,6 C 0,0 UV-I 0,0 C 46 % 51 % 0 % 1017,9 hPa - 0,0 km/h (0 Bft) - 0,0 km/h (0 Bft)
_ Max-Zeit 13:52 13:38 11:44 13:16 22:12 23:22 10:52 00:00 15:28 14:44 10:50 14:40
Maximum _ 24,9 C 23,3 C 13,7 UV-I 7,4 C 61 % 94 % 100 % 1023,7 hPa 1,0 l/m 8,0 km/h
S-SO (2 Bft)
2 min 20,6 km/h
W-SW (4 Bft)
Durchschnitt _ 23,6 C 15,8 C 1,8 UV-I 0,9 C 51 % 77 % 17 % 1020,0 hPa #5,2 l/m 1,6 km/h (1 Bft) #2:58 h 2,6 km/h (1 Bft)
© 2012 W. Hausmann